GFSFLT2_925_spd_000.txt.gz
Wind_Speed
19 17 16 16 15 14 13 12 11 10 9 8 8 9 10 11 10 11 11 11 11 13 15 15 15 16 17 18 18 19 17 15
17 17 17 16 15 13 13 12 11 9 8 8 8 8 8 7 7 7 7 7 7 8 9 12 14 15 17 18 19 19 19 19
18 18 18 16 16 14 13 12 11 10 10 9 8 7 6 6 4 4 4 4 4 4 5 6 8 9 10 12 15 17 18 18
20 18 17 17 15 14 13 13 12 11 11 9 8 6 4 3 3 2 3 4 6 7 8 8 9 11 12 13 13 14 16 16
20 17 16 15 15 14 14 13 13 11 9 9 7 4 3 3 3 3 4 5 7 9 9 8 10 12 15 16 14 15 17 17
20 17 14 13 13 14 13 13 12 10 9 7 4 2 1 2 1 3 4 5 7 10 11 11 12 14 15 15 13 13 13 15
20 16 14 12 11 11 11 10 9 8 7 5 4 3 2 0 1 3 4 7 9 11 13 13 12 11 13 13 11 14 15 16
18 14 10 7 5 8 11 12 10 10 10 7 5 4 3 2 2 3 6 10 14 15 14 10 8 9 8 9 12 16 19 22
16 15 8 4 3 10 15 17 17 16 13 9 4 1 4 3 2 5 9 12 11 8 7 8 9 10 12 13 14 17 21 24
14 15 13 10 8 13 8 18 10 4 8 10 9 5 3 4 7 10 10 8 7 8 8 10 11 14 15 17 17 19 22 17
21 18 10 8 5 10 4 7 12 10 7 5 4 5 8 11 11 8 7 6 9 10 12 14 13 16 18 15 19 20 14 9
24 18 13 7 7 13 12 11 8 4 3 4 6 7 7 8 7 7 6 8 9 11 12 14 15 18 18 16 18 9 11 8
18 15 16 21 21 12 6 3 2 2 5 5 6 7 6 6 6 7 9 10 10 12 14 16 17 19 9 21 14 2 7 11
20 21 21 16 9 2 1 1 4 2 4 6 6 7 7 9 11 13 13 12 11 12 15 16 10 14 8 6 3 5 3 17
22 17 14 9 9 8 5 2 2 0 3 5 7 7 8 11 16 17 14 10 6 9 12 15 8 8 9 6 3 2 7 8
15 13 11 8 5 4 3 2 1 2 3 7 10 12 15 21 24 17 12 4 5 8 8 9 7 8 6 7 6 4 2 3
9 8 6 4 3 3 3 2 3 3 4 6 18 23 23 21 22 19 10 3 3 3 4 5 7 5 4 5 5 8 6 4
8 6 7 6 6 10 11 10 7 5 8 13 19 21 23 25 19 8 3 4 6 7 9 8 6 6 6 6 6 3 6 3
11 14 20 19 19 18 15 15 13 15 17 16 24 26 22 25 11 4 3 7 8 9 9 7 5 4 6 7 7 9 9 9
18 19 19 16 15 14 13 13 13 15 17 22 25 25 24 19 10 7 6 8 9 6 6 7 7 10 10 11 10 11 10 10

GFSFLT2_925_spd_003.txt.gz
Wind_Speed
16 15 15 13 12 12 12 11 11 9 8 8 10 10 10 9 9 9 8 8 9 11 11 12 13 12 14 15 16 16 17 17
14 14 13 13 12 11 10 9 9 8 7 8 9 10 9 8 6 5 5 6 5 5 5 5 6 7 9 10 11 13 15 15
13 12 14 14 12 10 8 8 8 7 8 8 8 7 7 4 2 3 3 3 3 5 6 7 6 7 10 13 14 12 14 13
12 12 11 9 9 8 8 7 6 6 8 7 6 4 3 1 1 0 0 1 4 7 9 8 8 9 11 14 14 15 13 13
13 10 9 7 4 4 3 3 4 4 6 4 3 2 3 1 1 0 2 2 4 8 10 10 9 10 12 12 13 12 11 11
10 8 6 6 3 2 0 0 2 2 2 4 5 4 2 2 2 1 1 4 7 10 11 13 12 11 10 10 10 10 11 12
10 8 7 7 5 3 1 5 6 8 8 9 8 6 4 1 2 2 3 5 8 10 12 11 9 8 8 8 9 11 13 14
11 10 10 10 13 11 6 6 13 14 10 8 11 8 4 3 3 3 5 8 10 10 9 5 5 5 6 7 10 12 14 15
15 15 15 17 15 14 11 15 14 21 14 11 10 4 4 2 4 7 8 7 5 4 4 4 4 7 8 10 11 13 14 12
20 22 15 9 12 16 12 18 18 11 6 3 6 3 2 4 5 4 2 2 3 3 4 5 6 9 11 11 12 12 8 4
23 17 10 5 15 13 7 8 5 6 5 5 5 3 3 5 4 2 1 1 2 3 5 7 7 10 13 11 14 12 5 2
25 16 13 10 7 4 9 8 5 4 7 6 5 5 4 4 3 2 3 4 6 7 8 8 7 10 13 11 14 9 4 3
22 18 11 9 15 17 11 5 2 3 3 3 3 3 4 4 5 7 9 11 13 13 11 10 9 12 11 14 13 7 4 3
20 16 18 19 19 11 4 4 4 3 1 3 4 4 5 7 11 15 14 12 11 9 7 6 6 8 9 12 7 9 11 9
21 21 22 12 7 7 6 5 4 1 2 3 6 11 13 14 17 15 14 13 7 3 4 6 8 7 7 6 5 5 14 10
19 17 11 8 5 4 4 4 4 5 5 5 9 12 14 16 16 16 13 7 2 1 4 7 8 9 9 6 7 10 6 9
15 13 10 8 9 11 12 13 12 10 7 9 13 15 18 19 18 18 13 5 2 1 3 4 6 6 6 7 8 9 10 9
16 15 16 17 19 19 17 13 10 10 12 14 16 21 23 21 20 17 9 7 3 1 3 3 2 2 4 4 8 10 11 10
21 22 21 18 14 12 11 11 12 13 14 15 19 19 20 20 20 13 9 5 0 3 2 3 3 4 5 7 9 9 9 9
21 19 18 16 14 13 12 12 12 13 15 17 19 19 20 21 12 11 7 2 0 3 6 7 7 7 9 8 9 10 9 9

GFSFLT2_925_spd_006.txt.gz
Wind_Speed
16 15 14 12 9 9 8 6 6 5 5 5 7 8 8 9 8 7 7 7 7 7 7 7 7 8 9 10 11 14 13 12
14 13 11 10 10 6 5 5 4 3 4 6 7 6 6 6 6 3 4 3 3 3 4 4 4 6 9 12 13 12 13 11
11 11 10 9 9 7 3 2 3 3 3 4 5 3 2 1 1 2 1 1 1 4 6 7 8 10 13 14 14 15 13 12
10 9 8 8 6 7 6 5 3 3 3 2 2 2 2 3 3 2 3 3 3 5 6 8 9 11 12 14 14 13 11 11
9 9 9 7 7 7 7 5 5 4 3 2 2 4 5 6 4 4 4 4 4 6 6 7 10 11 12 11 11 11 10 10
10 9 9 8 8 9 8 7 5 5 2 3 3 5 7 8 6 5 3 4 4 6 7 8 9 10 8 8 8 9 10 11
11 10 11 9 10 9 7 5 2 1 2 4 3 1 8 11 9 6 4 4 5 7 8 10 11 11 9 9 9 9 10 11
13 13 14 14 13 10 8 7 7 6 3 4 4 5 5 16 12 8 5 4 6 8 10 11 11 11 11 11 11 11 11 11
16 17 16 15 13 11 9 9 11 7 5 5 12 10 9 14 9 7 5 4 5 7 8 9 11 12 13 14 14 13 13 11
18 17 15 11 7 14 9 14 7 3 8 7 5 6 6 6 5 4 4 5 5 6 8 10 12 13 14 15 16 15 14 13
19 17 15 8 2 8 1 5 6 5 6 5 4 4 4 1 2 2 4 5 6 7 9 10 11 13 15 18 19 20 21 21
18 15 13 7 2 2 7 7 5 6 5 5 4 3 3 2 3 4 5 7 8 9 10 12 13 14 17 21 20 22 22 20
19 15 9 5 5 7 6 3 3 4 4 5 4 3 4 4 4 6 8 10 11 11 13 16 16 14 19 19 20 21 12 16
14 12 10 9 8 6 2 2 4 5 4 3 4 5 5 7 9 11 12 15 15 13 11 12 13 10 15 20 10 17 18 11
14 13 12 8 4 3 4 5 4 1 3 4 5 7 9 10 11 12 13 14 16 11 8 8 11 12 10 12 9 11 20 22
16 15 9 6 5 7 8 6 4 4 5 6 8 10 12 14 15 15 15 15 14 10 8 6 7 12 14 15 14 16 11 12
15 14 11 10 11 10 8 7 6 5 7 11 13 15 16 18 18 18 18 15 12 8 6 6 10 11 18 16 16 16 16 14
14 15 14 13 13 12 11 9 8 9 11 13 15 18 19 19 19 19 17 13 9 6 4 7 11 12 11 11 12 13 14 15
15 15 15 12 12 11 11 10 8 8 11 13 16 17 18 19 19 17 13 9 6 4 4 8 10 10 10 12 13 14 15 16
16 15 14 12 11 11 9 7 7 8 10 12 14 16 17 18 16 10 6 5 3 6 12 9 9 10 11 13 16 17 17 17

GFSFLT2_925_spd_009.txt.gz
Wind_Speed
20 18 16 13 12 12 11 10 9 8 7 8 7 8 9 8 6 5 5 6 6 7 7 8 9 11 14 16 15 11 16 14
19 16 16 15 14 11 10 9 8 8 7 8 9 8 7 7 6 3 3 4 4 6 7 8 8 7 9 17 16 16 17 13
15 14 13 13 12 10 8 8 8 9 8 9 5 3 4 2 3 4 3 4 6 8 8 7 8 10 5 16 15 17 15 15
14 13 13 12 11 10 9 7 7 7 6 5 4 2 2 2 3 6 6 8 7 8 9 8 9 12 11 16 15 15 16 14
12 12 11 9 10 10 9 7 7 7 6 4 3 2 3 2 3 5 5 7 8 10 9 11 11 12 13 13 14 15 16 14
10 11 10 10 10 10 10 9 7 6 3 2 1 0 2 2 3 8 9 9 10 11 12 11 12 13 12 13 14 14 15 15
13 12 12 12 12 12 10 9 7 4 1 1 0 2 1 3 4 3 9 12 12 13 15 14 16 16 15 13 14 16 15 15
15 15 14 14 14 13 10 7 4 4 2 3 5 4 6 7 6 6 10 12 13 13 13 13 14 15 15 15 15 16 15 14
19 19 17 17 14 11 6 5 8 6 3 1 4 3 3 5 3 8 11 8 10 12 12 13 15 15 17 17 18 19 18 17
19 18 18 15 12 8 5 4 5 5 7 7 4 2 1 3 4 4 6 6 8 10 12 13 16 18 20 19 20 21 21 21
19 18 16 10 5 4 5 8 9 6 7 5 6 5 4 2 3 4 7 9 11 12 13 15 17 20 22 21 24 28 22 22
18 16 13 7 3 7 9 10 7 6 6 6 5 4 4 4 4 5 8 11 13 14 17 18 19 21 23 21 27 22 23 24
17 14 10 8 7 8 8 7 6 6 6 5 5 5 5 6 7 10 13 14 16 17 18 19 22 23 19 20 21 25 20 22
16 12 10 9 8 6 4 4 5 6 5 5 5 6 7 9 11 13 15 17 18 19 19 19 19 19 18 17 11 18 22 23
15 13 13 9 8 6 6 6 5 3 3 3 6 7 10 12 14 16 17 19 20 20 19 15 18 17 17 15 12 11 21 23
15 15 12 7 6 6 6 7 7 5 4 6 9 10 13 15 17 18 18 19 20 19 16 11 17 16 17 18 20 22 13 14
17 14 11 10 10 8 6 6 4 3 5 8 11 13 14 15 16 18 18 18 18 16 14 14 14 16 17 18 18 19 20 18
16 15 13 12 12 11 10 8 4 4 6 8 10 12 13 14 15 17 17 17 15 14 9 10 10 14 15 14 16 18 18 18
17 15 14 13 12 11 10 6 5 5 7 8 10 11 12 14 16 17 16 14 10 7 7 11 12 12 13 14 16 17 18 19
17 17 16 14 13 11 8 5 5 3 5 7 8 10 12 14 15 15 13 8 5 6 11 12 13 14 11 14 15 17 18 20

GFSFLT2_925_spd_012.txt.gz
Wind_Speed
24 19 16 14 18 20 17 15 13 11 12 13 12 12 12 11 9 9 9 8 8 8 8 9 10 10 13 20 19 20 19 15
23 19 10 19 19 17 16 14 13 12 14 13 14 13 11 9 8 5 5 6 7 9 10 10 11 9 7 16 18 18 16 16
18 21 18 17 17 17 16 14 14 14 14 11 10 6 6 7 5 3 4 5 6 8 10 9 12 18 8 17 17 17 19 15
21 22 20 19 16 18 15 15 13 9 8 5 9 6 4 2 2 4 4 7 8 6 9 10 11 13 14 14 15 14 18 17
18 20 17 19 18 17 15 13 12 10 8 3 8 5 7 4 4 5 5 7 7 10 12 6 12 11 12 10 12 14 16 16
20 17 18 18 17 16 16 13 12 9 7 4 5 3 5 2 2 4 8 14 11 12 12 12 14 17 13 15 13 13 16 14
19 16 17 13 19 15 17 12 11 8 2 3 6 3 2 3 7 8 10 12 13 12 16 16 16 15 16 13 16 16 16 14
21 18 18 17 17 17 14 12 8 7 5 2 2 2 2 4 4 3 4 7 11 13 13 12 13 15 15 16 16 18 17 17
21 21 19 19 18 14 11 10 9 5 6 5 4 5 4 2 6 9 9 10 13 13 15 15 12 15 18 19 18 17 18 21
20 20 20 19 17 9 3 8 11 7 10 9 8 9 8 9 8 8 10 11 11 9 12 12 17 18 17 21 15 17 22 25
20 23 20 19 11 9 7 10 11 13 13 11 10 10 9 7 3 5 10 10 11 12 13 17 18 20 21 23 17 20 21 25
21 20 16 12 10 11 11 13 13 14 12 9 11 10 8 5 9 9 8 11 12 16 16 15 16 16 21 23 16 12 20 22
21 19 15 13 16 17 16 16 13 13 10 10 8 9 8 9 6 9 11 12 15 15 17 14 15 16 18 17 18 16 17 18
21 20 15 14 14 14 12 19 17 13 10 10 8 7 7 7 9 11 12 13 15 15 17 18 13 12 16 18 4 11 12 24
21 18 16 12 16 12 11 12 11 13 10 10 9 7 7 8 10 11 13 13 13 16 17 16 9 12 13 13 4 4 14 14
22 20 16 12 9 15 13 12 14 11 8 8 6 6 7 9 11 13 15 14 15 15 14 15 10 10 13 12 17 18 6 8
19 20 15 12 12 13 13 15 13 11 8 5 5 7 7 8 10 13 15 15 15 16 15 6 5 10 13 16 15 16 16 11
22 19 16 15 15 16 18 15 11 9 5 3 6 7 8 9 10 12 13 14 14 7 5 6 8 8 10 10 16 13 12 12
20 20 19 17 17 17 17 14 11 9 5 3 4 6 8 9 11 12 13 12 7 9 9 9 13 11 8 11 11 12 15 16
20 22 20 20 19 18 15 13 11 9 6 3 0 4 7 10 9 11 11 6 10 7 8 13 11 12 12 12 8 9 14 15

GFSFLT2_925_spd_015.txt.gz
Wind_Speed
21 17 30 22 16 19 20 19 19 18 20 19 18 17 16 15 14 13 12 10 11 11 11 11 13 12 16 20 18 22 17 13
19 13 18 15 19 19 18 18 18 19 20 20 18 17 14 13 9 9 8 9 9 10 12 11 15 18 7 17 18 17 24 10
22 22 20 21 21 18 19 18 20 21 20 18 16 14 12 11 10 8 7 7 7 10 10 10 10 12 11 11 12 13 18 16
32 25 18 20 21 20 20 21 20 18 16 14 13 11 9 7 7 5 5 6 8 8 11 6 11 11 10 10 10 9 13 17
27 24 23 21 22 21 19 17 16 14 9 12 12 13 12 10 7 9 12 11 11 10 12 12 13 13 13 14 12 11 14 13
28 28 24 21 23 21 19 18 15 14 11 13 10 9 7 5 6 6 7 9 8 7 10 11 13 14 14 14 15 13 14 16
26 25 25 22 20 20 20 16 16 14 11 11 7 5 6 7 9 8 8 6 6 8 10 12 13 12 11 14 14 15 13 16
27 23 20 26 26 23 18 17 17 12 9 8 9 7 7 7 6 5 6 8 10 12 12 11 11 12 12 14 15 11 11 13
26 24 25 24 22 20 16 16 11 10 10 7 7 6 7 9 6 4 7 9 12 12 8 6 6 10 12 13 17 10 13 14
31 24 27 24 20 16 13 13 11 10 12 13 14 14 12 8 3 6 9 7 8 5 5 7 13 14 12 13 16 18 15 17
26 29 26 23 18 10 13 11 16 17 16 15 12 11 10 7 5 6 7 5 6 8 10 13 13 10 11 13 16 11 12 15
30 27 25 20 17 15 18 20 19 18 16 14 10 8 9 10 6 7 6 4 7 11 13 11 10 12 10 10 9 14 9 13
30 28 23 20 20 21 22 22 24 17 14 13 13 13 9 5 1 4 6 9 10 11 9 12 14 8 7 12 11 5 11 15
31 26 23 23 23 27 27 28 20 15 16 13 9 6 5 4 4 5 6 8 9 8 11 13 10 6 6 5 3 6 12 17
34 28 22 24 23 27 26 25 22 21 19 14 12 9 6 2 4 6 8 10 9 10 10 5 5 4 8 6 3 1 5 4
34 29 22 27 31 33 34 30 24 23 19 14 8 3 2 4 5 7 11 13 13 11 11 9 1 6 4 9 9 9 1 4
31 27 29 22 24 26 26 29 26 23 16 9 5 2 1 2 5 9 12 11 13 10 3 3 8 8 7 6 8 7 6 2
30 31 25 26 25 25 29 30 25 18 12 8 6 5 2 2 6 9 10 10 4 4 7 8 9 10 8 5 6 1 3 2
32 30 26 24 25 27 27 24 19 14 12 8 6 5 1 3 8 7 9 10 4 7 12 10 10 9 7 8 8 8 8 8
31 30 27 24 23 21 19 17 15 13 12 8 5 2 2 4 4 7 7 8 7 11 10 12 11 8 11 10 8 10 11 7

GFSFLT2_925_spd_021.txt.gz
Wind_Speed
25 29 31 28 22 23 23 23 20 20 21 22 23 24 22 21 18 18 18 17 17 15 15 15 10 12 13 12 13 12 11 12
28 33 30 18 16 17 14 16 19 20 22 22 22 21 19 17 15 15 15 15 13 12 11 12 11 12 13 12 10 9 10 11
25 29 29 28 14 12 15 16 18 20 21 21 20 18 17 15 13 13 12 10 10 9 9 10 11 11 12 11 8 8 10 10
40 40 38 25 17 15 15 17 18 20 21 20 16 16 14 13 11 10 9 7 7 9 10 10 11 9 9 9 9 8 7 5
30 29 24 22 19 18 19 21 20 20 18 17 15 13 12 12 11 9 11 11 13 13 12 11 8 9 8 9 8 9 9 7
32 27 21 20 20 19 19 20 19 18 18 16 15 14 15 15 14 15 12 12 12 10 9 10 10 10 8 8 10 10 10 8
30 26 21 22 19 20 21 20 16 18 17 17 18 17 16 15 14 13 11 9 7 6 6 8 8 8 8 9 9 9 11 11
27 24 22 23 21 22 20 18 18 21 20 19 17 15 15 15 15 12 9 7 6 7 7 8 8 6 7 8 8 9 11 11
26 23 22 24 23 20 20 22 20 21 19 17 16 15 14 13 12 10 8 6 7 7 6 5 6 8 7 7 8 9 10 12
25 24 25 24 22 21 24 24 21 19 17 17 16 13 13 13 11 9 8 8 5 3 4 5 6 5 5 7 8 8 10 12
26 26 26 25 24 24 25 22 19 18 17 16 16 16 15 12 10 9 6 3 2 2 4 5 5 5 4 5 6 8 9 9
27 28 27 27 27 25 22 20 17 17 18 19 18 17 15 11 9 7 6 3 1 3 5 4 5 6 3 4 6 7 6 7
26 28 30 31 29 26 22 22 21 20 20 18 17 16 14 10 7 6 2 2 4 4 3 5 5 4 3 2 3 6 6 6
31 34 33 31 30 25 22 24 23 22 20 19 17 15 13 8 6 2 1 3 4 4 5 4 3 2 2 1 2 3 2 5
38 39 36 32 29 26 24 24 22 22 22 21 17 13 10 7 4 1 2 6 7 7 5 2 2 2 1 1 1 3 3 4
44 42 39 35 31 29 31 34 27 26 25 19 16 11 8 5 2 2 4 7 8 7 5 2 1 3 3 2 1 1 3 3
39 39 40 37 33 32 35 32 29 26 23 20 16 12 8 4 1 3 5 5 4 3 3 4 3 1 1 2 4 5 7 5
36 37 40 38 35 35 37 35 33 28 26 23 18 14 9 6 3 4 6 5 3 2 2 2 1 1 1 2 5 6 6 6
38 38 37 41 37 38 38 38 35 33 31 25 20 16 12 8 4 3 4 4 4 5 2 2 2 1 3 4 7 8 9 8
33 36 35 39 39 40 38 37 35 35 29 23 19 15 10 7 5 6 4 5 5 8 7 4 5 5 7 8 9 11 10 7

GFSFLT2_925_spd_024.txt.gz
Wind_Speed
23 22 22 20 22 24 24 23 23 23 24 24 25 24 22 21 19 16 17 17 17 17 15 15 15 15 14 13 13 13 13 13
30 28 34 17 18 18 20 20 21 23 23 24 23 21 20 18 17 14 15 13 14 13 14 14 14 13 12 11 10 10 11 12
43 42 29 22 19 16 18 20 22 22 22 22 22 19 17 15 14 13 12 11 11 11 12 14 13 13 12 9 8 8 9 8
44 36 30 31 23 13 16 16 17 20 22 21 19 16 15 13 11 9 9 9 9 12 13 12 11 11 10 9 10 8 6 4
31 42 29 27 27 11 12 16 18 20 19 17 17 15 13 12 11 10 12 13 14 13 12 9 8 9 10 11 11 10 10 7
38 38 33 22 15 15 16 19 20 20 19 16 14 14 13 12 14 15 14 14 12 10 9 9 9 9 9 9 9 9 8 8
34 30 23 18 14 15 17 19 19 17 17 16 15 14 14 15 15 14 13 10 8 7 8 8 8 8 8 7 7 7 8 8
29 24 19 16 15 15 18 19 18 19 17 15 15 16 14 15 14 12 10 7 8 8 8 7 6 5 6 6 6 6 8 9
29 25 17 18 17 18 21 20 17 18 18 16 15 13 15 15 14 12 9 8 7 6 6 5 5 5 6 8 6 6 6 7
26 23 19 19 18 20 19 19 17 19 19 17 15 15 15 14 12 11 10 8 7 6 6 4 4 5 6 6 6 6 7 7
23 20 18 18 18 20 20 20 18 19 17 17 17 17 16 14 13 12 11 9 6 4 3 2 5 4 4 6 7 7 8 8
23 22 20 21 20 18 21 20 19 18 18 18 18 18 17 15 13 12 10 6 3 3 4 6 4 3 5 6 7 7 8 8
25 24 24 24 25 23 23 22 21 19 17 17 18 19 17 15 13 9 7 5 6 5 5 4 4 4 5 4 6 6 6 8
27 27 28 28 31 31 26 25 21 18 18 18 18 19 17 14 10 8 7 5 4 3 3 5 4 3 2 0 2 3 2 4
34 31 31 32 34 31 25 23 20 21 21 20 20 17 15 12 9 7 4 3 3 3 4 5 4 2 2 2 1 2 3 3
34 34 33 35 34 33 31 32 27 25 27 23 20 16 14 11 8 6 4 3 5 7 6 5 4 3 3 1 0 1 2 3
37 36 35 38 38 36 33 32 32 26 26 24 20 17 14 11 8 6 5 5 7 5 7 7 4 1 2 2 3 5 6 4
37 37 38 39 38 37 36 34 33 27 28 25 23 21 17 13 9 7 6 4 4 3 5 3 1 1 4 6 5 5 6 8
37 37 35 38 39 40 37 38 35 32 35 32 27 24 21 16 10 6 2 2 2 3 1 2 4 6 7 7 7 10 11 10
33 34 34 39 40 41 38 35 36 36 36 35 34 29 23 18 14 11 6 6 3 8 8 9 9 10 10 12 11 12 12 13

GFSFLT2_925_spd_027.txt.gz
Wind_Speed
31 31 33 23 15 23 25 26 29 30 30 31 30 25 23 22 23 22 20 18 19 18 18 18 15 15 15 15 14 14 13 12
35 37 43 40 19 16 21 24 25 27 28 29 26 21 19 19 19 19 18 16 16 16 16 15 14 13 12 12 11 11 11 11
37 41 41 30 23 17 17 20 21 24 26 26 24 19 17 17 17 16 15 14 15 15 15 13 13 12 10 8 8 9 8 7
40 39 35 32 25 17 16 18 19 22 25 25 22 17 16 14 14 13 12 13 15 15 13 12 10 10 10 9 11 9 7 7
32 33 33 31 32 26 24 20 21 23 23 21 19 16 15 15 13 12 13 15 15 13 12 10 10 10 9 10 10 10 8 7
36 44 45 36 39 23 20 22 23 22 19 17 16 16 14 14 15 17 16 14 14 11 10 9 8 9 8 7 8 8 7 7
27 33 33 32 25 17 20 22 21 20 19 17 15 15 14 15 17 17 15 13 10 9 8 7 6 5 5 5 6 6 6 6
28 20 22 21 16 16 17 18 19 18 17 15 13 13 15 16 17 15 13 11 10 8 7 6 6 5 4 3 4 5 8 8
24 22 19 16 14 14 16 18 17 17 16 13 13 15 16 16 16 14 12 11 8 8 7 5 5 4 4 4 3 3 4 4
21 20 19 16 16 14 16 18 16 16 16 14 16 16 16 16 15 14 12 10 8 7 6 4 2 3 5 4 4 4 5 5
21 21 18 15 16 17 18 17 15 13 17 18 17 16 17 16 15 14 12 10 9 6 4 3 4 4 4 5 5 5 5 5
21 23 21 18 19 19 19 18 17 18 18 19 19 19 19 17 14 14 12 10 7 6 4 5 5 5 5 5 5 5 6 6
23 23 23 22 22 18 18 19 20 20 20 20 20 21 19 17 16 14 13 9 7 7 7 6 4 6 6 3 3 4 6 6
24 26 27 28 26 24 21 23 21 21 21 20 20 20 19 17 16 15 12 10 9 8 9 6 4 7 4 2 3 6 7 8
26 25 27 28 29 27 21 22 19 17 18 19 21 21 20 18 16 14 12 9 8 8 9 9 10 6 6 3 3 3 2 6
28 29 33 32 32 31 32 24 18 17 21 22 24 23 22 20 18 15 11 10 9 9 8 6 5 6 4 5 5 3 3 3
30 29 31 30 33 32 30 26 24 22 25 26 25 24 22 22 20 17 15 14 14 9 6 5 8 8 6 5 4 3 4 6
30 28 27 27 32 33 34 35 31 25 29 29 27 25 24 23 21 18 17 17 14 10 6 11 7 4 5 5 5 4 4 6
27 27 27 29 33 35 37 39 34 33 34 36 35 32 31 29 25 21 20 16 11 12 11 11 8 6 8 6 6 6 5 6
27 28 28 28 33 36 39 37 35 32 32 35 37 35 32 30 25 22 19 10 11 15 13 11 9 10 9 8 8 8 9 9

GFSFLT2_925_spd_030.txt.gz
Wind_Speed
34 33 31 27 29 31 30 31 33 34 34 33 31 28 25 23 22 22 21 22 22 21 19 17 16 14 13 13 13 15 11 11
36 33 32 32 25 25 26 28 31 32 31 29 28 26 23 21 19 19 19 19 18 18 17 16 14 12 11 11 13 13 10 9
36 40 31 29 22 20 21 25 27 29 27 25 23 19 18 16 16 17 18 18 17 16 15 13 11 10 10 9 11 8 8 8
39 40 36 38 28 26 18 21 21 23 24 17 13 16 15 15 15 15 16 16 17 15 13 12 9 6 7 10 8 8 8 8
31 33 36 33 30 24 17 18 24 21 21 15 12 14 15 13 13 12 15 15 14 12 9 7 7 6 6 7 7 7 7 7
27 26 28 29 30 27 20 18 15 17 18 14 12 12 12 12 12 13 13 11 12 9 7 9 8 8 7 6 7 8 7 6
29 29 34 37 32 32 19 12 13 13 14 14 12 11 12 11 12 12 11 11 9 8 8 7 7 6 6 6 8 8 8 7
26 30 33 30 30 18 12 11 14 15 15 13 12 11 12 12 12 11 10 9 8 6 6 6 5 5 6 5 6 6 6 5
28 23 24 30 20 15 14 16 16 16 13 11 11 11 14 13 12 11 10 8 9 8 6 5 3 4 4 4 3 3 3 3
25 23 23 22 18 14 15 16 16 14 12 12 12 13 14 13 12 11 11 11 9 7 5 3 2 2 2 1 0 0 1 1
23 22 20 19 16 13 15 16 15 14 13 12 14 15 14 12 12 12 12 10 9 7 5 3 2 2 2 3 4 4 3 3
24 23 20 16 15 13 14 14 14 13 13 15 16 14 14 13 11 12 11 10 9 7 6 3 2 2 4 4 5 5 5 5
24 23 20 19 18 18 17 19 16 14 13 15 15 15 16 15 12 13 11 10 9 7 6 5 3 3 4 6 7 7 8 7
24 24 23 22 19 19 18 18 17 16 15 15 16 16 17 16 15 14 13 11 9 9 7 6 5 6 6 8 5 7 9 9
25 24 23 22 22 20 17 15 12 15 16 16 18 19 18 16 18 17 16 12 11 11 12 11 7 6 10 8 4 5 2 9
26 26 25 24 24 22 22 21 18 17 16 16 19 19 19 19 19 18 17 15 14 13 13 13 11 9 8 11 9 7 4 4
27 27 27 26 26 26 24 24 20 17 16 19 19 19 23 21 20 18 16 14 13 13 15 11 10 8 9 7 8 7 7 8
28 28 28 27 27 28 27 25 22 20 22 22 21 20 25 22 20 19 17 15 15 16 15 10 9 10 7 9 10 8 9 9
29 30 31 29 30 29 30 28 25 27 25 23 22 21 25 22 19 19 21 20 20 18 12 11 13 11 9 9 9 8 9 10
29 29 31 30 31 31 28 26 25 24 23 26 27 25 29 25 27 25 20 21 20 15 12 13 12 10 10 11 10 10 9 10

GFSFLT2_925_spd_033.txt.gz
Wind_Speed
27 26 26 28 29 31 33 32 31 29 27 29 29 27 26 25 26 26 25 25 21 19 17 16 14 14 14 16 17 14 12 12
33 31 27 25 24 27 32 34 30 28 25 26 25 25 26 24 24 23 23 21 18 16 15 14 13 12 13 12 9 11 10 11
35 32 27 24 26 25 27 30 29 25 23 23 20 23 19 16 18 20 19 17 16 14 13 12 10 11 12 12 9 9 8 10
37 36 27 33 29 27 24 24 25 19 19 17 15 18 13 14 18 18 16 16 15 13 13 10 5 6 5 10 9 8 8 10
28 34 36 31 32 31 30 23 24 19 14 13 14 15 15 14 17 16 15 15 12 11 7 5 6 5 6 7 6 5 5 7
32 29 34 37 40 35 26 24 20 17 13 11 15 13 14 12 14 13 14 12 11 7 6 6 6 7 6 6 6 5 3 6
25 34 31 30 28 28 23 20 15 13 14 11 13 12 12 12 12 13 11 11 9 8 7 6 4 4 4 3 5 4 4 3
23 25 28 31 27 28 25 17 17 13 12 13 11 11 12 11 12 12 11 10 9 7 7 5 3 3 3 3 4 3 4 3
25 29 31 31 25 30 27 17 16 18 16 14 14 14 14 12 12 11 11 9 9 7 7 5 4 3 3 3 2 2 3 2
25 28 22 23 30 29 20 17 17 17 16 15 17 15 14 12 11 11 10 10 10 9 7 6 5 4 3 2 1 1 1 1
27 26 27 27 25 14 16 15 15 18 19 16 16 16 15 12 11 11 11 10 9 9 8 7 6 5 3 1 2 3 2 2
25 24 24 25 19 16 17 18 19 21 14 17 16 16 14 13 12 11 12 11 10 11 8 6 5 4 4 5 6 6 4 5
26 25 25 24 21 23 21 21 21 18 16 17 15 16 15 14 13 13 13 13 13 11 9 8 7 6 5 8 11 11 7 7
27 27 25 24 23 22 20 20 22 20 17 17 17 17 16 15 16 15 16 16 14 13 12 11 8 8 4 7 6 6 11 12
29 28 27 26 24 21 20 19 20 20 17 17 18 18 19 19 18 17 18 17 16 16 14 12 10 8 6 6 4 5 7 13
28 28 28 28 26 23 24 23 23 20 21 19 19 21 20 20 19 19 18 17 16 16 13 12 8 7 6 9 12 11 4 4
30 29 29 28 27 27 25 24 22 21 21 19 23 20 20 19 19 18 18 16 14 14 13 12 8 7 7 10 13 12 11 8
31 31 30 29 29 29 28 25 26 23 22 20 20 20 18 18 16 16 16 14 12 10 11 11 4 10 13 12 13 11 11 11
30 32 32 31 31 30 31 29 27 25 19 19 19 18 18 22 21 17 17 19 19 23 16 13 14 18 11 11 13 13 12 12
32 32 32 32 33 35 31 29 27 22 21 19 21 22 23 22 28 28 26 28 24 17 19 16 18 12 14 11 13 12 12 12

GFSFLT2_925_spd_039.txt.gz
Wind_Speed
27 36 37 31 32 33 31 33 36 37 36 35 33 32 28 28 28 27 25 23 22 21 19 19 20 19 19 23 20 21 21 21
21 19 39 34 36 36 35 34 34 34 35 33 31 29 27 27 26 24 23 21 19 18 18 18 19 18 16 18 20 23 19 18
29 27 31 32 30 30 31 31 32 32 32 31 28 28 27 26 25 21 19 19 17 15 16 20 19 16 14 17 15 14 13 14
31 39 37 35 34 26 27 29 31 31 32 31 30 27 25 24 21 19 18 16 15 13 12 12 8 10 12 14 11 11 12 12
33 35 37 39 37 36 29 28 30 31 30 31 25 24 23 23 22 20 17 15 14 11 9 9 9 8 11 10 12 10 10 10
36 36 36 34 35 36 34 36 30 23 27 26 23 21 21 20 19 17 15 14 14 8 9 8 7 7 9 11 14 10 7 11
34 37 41 40 41 39 35 33 26 26 22 20 20 17 21 20 16 14 14 13 12 10 8 7 6 9 8 9 9 7 8 7
30 35 39 42 43 39 36 29 24 26 18 18 15 15 17 15 17 14 15 12 11 11 7 8 10 7 8 8 8 5 5 5
28 36 40 42 38 35 36 35 28 26 19 17 18 17 13 15 18 15 13 14 14 13 13 10 13 8 6 8 6 6 4 2
28 32 35 34 39 35 33 35 36 32 24 14 15 16 17 16 15 16 14 13 16 15 16 13 10 9 7 7 8 6 5 6
33 34 36 37 35 37 37 34 29 30 33 17 19 18 17 15 16 16 18 16 17 14 13 12 14 12 12 12 10 7 8 6
34 38 36 38 37 37 36 40 35 37 29 26 22 23 18 19 20 17 19 20 16 14 15 16 17 15 13 15 15 13 12 11
35 35 37 33 32 30 32 29 30 30 24 20 25 25 25 22 22 18 25 23 19 20 18 18 13 12 12 8 14 16 18 15
34 36 37 33 32 31 28 29 26 25 23 25 23 26 27 24 26 22 26 23 22 23 24 19 18 14 7 3 2 5 18 17
36 36 33 34 33 31 30 26 26 29 28 28 28 29 28 25 28 25 26 24 26 24 27 26 18 14 15 6 1 3 2 15
35 35 34 36 36 32 31 29 24 28 32 33 33 30 29 29 34 32 26 25 26 22 26 22 14 12 13 13 9 4 3 1
37 38 38 38 39 37 34 33 32 35 34 35 35 33 32 31 32 29 25 28 27 22 23 21 17 14 14 10 9 3 5 5
39 39 40 43 43 45 36 34 36 36 34 31 37 37 36 36 29 29 31 29 28 27 27 28 29 26 28 18 9 4 3 6
40 40 40 42 41 42 44 41 40 40 36 36 31 31 33 27 32 32 34 35 30 30 31 31 25 28 27 17 12 12 15 16
43 42 40 41 43 44 45 41 39 41 36 29 29 27 30 36 34 36 32 34 33 33 29 27 26 29 25 23 16 16 18 16

GFSFLT2_925_spd_045.txt.gz
Wind_Speed
27 34 37 38 32 27 27 40 38 34 35 36 38 38 37 36 37 35 32 32 33 32 28 26 26 24 22 22 21 21 22 24
32 30 25 34 36 31 32 37 38 36 36 37 37 37 36 35 35 32 31 31 32 29 28 25 22 21 21 21 20 20 21 23
22 25 31 41 44 43 34 41 41 38 37 37 37 36 35 34 32 29 28 28 29 26 26 25 24 23 21 18 18 19 20 21
26 28 20 36 43 40 33 36 39 36 39 38 37 36 34 33 30 28 27 27 26 23 21 21 21 22 19 17 17 18 18 19
30 40 40 39 34 36 28 28 36 40 39 37 36 35 34 33 31 27 26 26 25 20 17 17 17 18 19 16 17 16 15 16
31 33 41 44 45 40 34 35 36 39 38 38 38 36 34 32 29 26 25 24 21 16 17 15 14 16 17 17 16 14 13 12
29 37 38 37 39 37 45 43 44 40 38 39 37 36 33 30 28 24 23 22 18 17 16 14 13 17 17 16 15 14 12 10
32 34 37 37 37 36 42 41 41 39 38 37 37 34 31 28 27 23 22 19 16 14 13 13 14 14 16 14 13 12 10 8
36 35 31 32 30 36 38 38 39 37 38 36 34 30 28 26 25 23 21 18 15 14 14 15 15 13 12 13 12 11 9 8
32 31 38 36 31 30 33 32 36 33 32 31 29 27 26 23 22 21 19 18 15 16 16 17 15 15 14 14 12 11 10 8
24 35 37 33 31 30 27 27 29 27 27 25 24 26 24 20 20 19 20 19 18 18 19 18 18 17 15 15 14 13 11 10
26 28 33 31 28 32 27 27 26 25 25 23 22 24 16 18 20 18 20 21 22 24 22 21 21 19 17 16 15 15 13 15
22 27 31 29 27 31 26 31 24 22 24 24 22 18 15 18 19 18 21 25 26 25 26 24 21 20 15 12 12 16 18 17
23 22 29 31 30 29 23 28 27 24 23 27 22 18 15 15 18 21 22 25 27 27 27 25 22 19 9 5 1 9 20 21
25 26 26 27 28 28 28 26 28 28 30 29 28 24 19 18 23 27 26 27 29 30 31 30 25 22 22 10 2 4 3 12
30 31 30 32 30 31 29 25 24 26 29 33 34 32 28 24 24 30 28 29 30 33 34 34 30 24 21 22 13 6 3 2
31 32 35 37 35 32 31 28 28 31 31 33 36 41 35 28 30 28 31 33 31 34 36 36 32 28 30 17 19 13 13 4
32 31 32 36 38 41 37 33 31 30 35 36 35 37 39 35 33 34 36 34 35 37 38 36 36 35 33 33 25 9 14 7
31 32 34 36 38 37 40 39 41 35 35 37 37 39 39 42 38 38 37 38 35 37 38 38 38 38 38 37 36 29 21 17
33 34 36 40 39 38 37 38 36 40 36 32 35 40 40 42 40 38 40 36 27 35 36 36 37 36 37 38 34 29 27 21

GFSFLT2_925_spd_048.txt.gz
Wind_Speed
25 26 25 26 25 32 35 31 33 37 35 30 31 31 34 34 34 32 29 29 32 33 32 30 28 27 26 25 25 26 28 28
29 30 33 34 34 38 37 32 33 39 35 32 33 33 33 34 35 34 32 33 34 31 29 27 27 26 24 24 24 25 26 26
26 34 37 40 41 45 38 33 32 36 34 33 34 33 36 35 35 34 33 31 31 30 27 25 25 23 23 22 22 23 24 24
27 32 34 41 42 45 40 37 30 36 36 35 35 36 35 33 34 32 31 30 29 29 29 27 25 23 22 21 22 22 23 23
21 27 35 36 33 42 39 34 39 36 37 37 35 35 34 33 35 35 31 29 29 27 26 25 23 21 20 20 21 22 22 20
21 25 30 35 34 33 37 34 32 32 38 37 35 35 34 32 31 32 29 25 25 24 23 20 19 19 19 19 19 19 18 19
24 30 31 40 39 35 40 34 37 36 35 35 36 36 34 32 29 28 26 23 22 22 18 17 17 17 16 16 16 16 15 15
27 30 35 34 33 34 34 33 33 37 31 38 37 36 33 31 29 27 24 21 20 18 15 14 17 17 17 15 14 14 12 12
29 32 33 34 29 29 29 31 35 37 37 40 38 35 32 30 28 26 23 21 20 17 16 15 16 17 15 15 13 12 10 10
27 28 28 30 32 28 27 30 39 35 35 37 35 32 30 29 27 26 23 20 19 16 17 18 17 17 16 13 13 11 10 10
21 27 28 25 28 27 30 32 37 41 37 36 32 30 28 27 25 24 22 20 18 17 19 18 18 15 13 13 12 11 10 9
25 25 31 31 20 29 31 31 32 32 25 27 28 28 25 24 23 21 19 20 19 19 19 18 16 15 14 13 14 14 14 13
24 21 28 35 27 25 31 30 29 34 28 23 23 25 24 22 21 18 21 22 20 18 20 19 17 18 14 11 14 16 17 17
22 26 25 30 29 24 22 29 27 31 25 21 25 25 22 21 18 19 18 22 21 20 23 22 21 19 10 4 1 9 20 21
23 24 28 30 30 23 22 28 25 25 23 23 24 25 20 15 17 16 18 20 22 23 25 27 24 23 24 10 2 5 3 12
23 24 29 31 29 29 28 27 31 30 31 30 27 26 26 23 18 17 17 23 24 24 26 29 27 27 24 28 17 6 4 1
31 29 28 31 35 36 36 28 29 31 31 32 31 28 28 28 29 21 19 22 25 26 26 29 33 32 29 17 25 17 12 4
33 34 34 35 37 38 40 33 32 35 36 35 37 36 34 35 33 32 26 26 27 30 30 31 35 38 34 31 25 12 14 8
34 35 33 35 38 40 42 39 40 37 36 34 33 40 42 40 35 35 32 29 29 33 34 33 33 35 38 37 34 34 29 22
35 35 33 36 39 41 40 38 37 41 36 34 36 38 39 39 36 33 31 32 34 35 32 25 27 30 34 38 40 39 37 29

GFSFLT2_925_spd_051.txt.gz
Wind_Speed
30 31 31 27 30 31 30 31 32 35 38 39 35 35 35 32 30 29 29 30 33 30 28 28 27 27 27 27 28 27 24 23
19 27 25 28 28 30 31 30 31 31 38 38 36 34 34 31 28 27 30 32 33 30 28 27 27 27 26 26 26 27 22 22
22 25 32 34 31 25 30 31 31 30 38 38 37 32 31 30 25 28 31 33 32 29 29 26 26 26 25 26 23 18 19 19
27 25 32 32 31 28 34 34 33 35 34 40 33 36 33 27 29 30 33 33 31 28 28 27 23 20 22 22 17 18 17 17
21 26 32 34 32 36 33 38 32 29 34 35 36 38 34 34 32 29 30 31 25 25 27 19 19 18 19 17 18 17 16 15
15 28 30 32 31 35 33 34 36 31 37 38 42 38 32 37 35 31 31 28 28 27 23 23 21 20 20 21 17 15 14 14
19 26 28 22 33 30 31 33 34 29 37 38 41 36 35 33 33 32 31 30 29 28 26 24 22 20 19 18 17 14 14 12
18 19 21 23 36 33 28 33 35 21 34 37 38 39 37 34 32 30 29 27 27 26 24 23 21 20 20 18 17 15 14 13
15 17 23 28 31 34 30 35 36 21 27 33 35 37 36 34 31 28 26 25 25 23 22 21 21 18 17 17 16 15 14 15
22 23 30 33 29 31 30 35 34 26 28 30 30 34 34 34 32 28 25 24 23 21 21 20 18 16 16 15 15 14 14 13
24 29 34 36 33 27 30 35 39 36 33 25 28 32 31 31 30 29 25 23 22 20 20 19 19 17 15 14 15 13 12 13
23 25 29 32 34 34 28 29 37 41 41 26 31 30 30 30 28 26 25 23 21 20 18 17 16 15 10 13 15 13 15 17
22 29 24 34 29 30 31 30 33 37 38 32 33 31 31 30 26 25 24 25 23 20 17 17 17 17 9 6 10 15 18 18
21 25 30 31 30 25 27 28 32 33 35 33 31 31 31 29 26 25 26 25 22 21 22 16 11 18 9 4 3 8 19 23
18 25 31 32 30 27 25 29 26 27 34 30 30 30 31 29 26 25 27 24 25 26 24 22 16 18 22 8 3 6 3 9
18 22 29 33 33 28 28 30 27 29 33 36 31 28 30 29 25 26 24 22 21 25 23 24 20 17 16 27 19 5 5 3
21 23 25 28 35 36 30 27 27 25 30 36 32 28 31 30 26 23 23 20 26 27 26 26 28 19 21 12 20 16 15 7
23 25 25 27 30 35 32 27 28 26 30 35 33 35 32 32 30 28 26 24 23 24 25 25 28 28 26 20 17 11 15 13
28 30 29 29 31 33 35 33 29 30 29 31 30 27 32 34 32 31 30 30 27 25 24 26 28 28 27 24 25 28 27 23
28 32 32 32 32 33 34 35 33 32 34 32 31 29 27 33 34 33 33 31 29 30 29 27 26 26 25 25 27 31 33 31

GFSFLT2_925_spd_054.txt.gz
Wind_Speed
21 24 24 29 30 31 35 35 34 34 36 37 37 35 37 36 32 28 27 26 27 27 26 26 26 25 24 25 24 19 18 20
17 20 18 20 24 25 28 34 34 32 34 34 38 36 36 35 32 28 28 30 28 27 26 25 25 24 25 25 24 20 18 18
22 28 23 22 23 21 24 26 30 34 37 35 39 30 30 29 26 29 31 31 28 27 27 26 25 25 24 24 17 16 16 16
22 25 40 24 26 27 26 25 29 33 33 34 30 30 28 24 27 31 33 31 29 27 27 26 22 20 20 14 13 15 15 16
17 34 29 26 26 27 24 25 29 32 32 29 27 25 26 24 26 28 29 29 24 24 25 18 17 19 17 12 15 14 15 16
15 26 30 36 35 35 33 33 35 36 36 32 29 27 28 26 26 27 28 25 23 22 19 15 16 16 15 15 14 13 13 15
10 21 28 30 32 33 31 37 40 37 35 28 28 28 26 27 26 26 26 23 22 21 18 17 16 16 15 15 13 12 12 13
9 11 19 24 24 28 28 42 40 35 30 28 25 27 26 25 24 23 22 21 20 18 18 17 16 15 14 13 12 12 11 11
8 11 14 17 27 23 32 37 40 33 26 27 26 24 25 24 22 21 20 19 20 18 17 16 15 15 14 13 11 11 10 10
12 11 17 23 25 26 35 37 34 29 25 24 23 26 26 23 21 20 19 18 18 16 16 15 15 15 14 12 11 10 9 9
15 15 22 27 28 27 34 34 31 26 23 21 24 24 23 20 20 19 19 18 17 15 14 15 15 15 13 12 11 10 10 11
20 19 24 23 27 27 30 34 30 27 26 20 18 21 23 20 19 18 19 18 16 15 15 14 15 14 13 12 12 12 12 13
21 25 28 27 28 26 25 28 37 35 38 22 18 23 24 21 20 19 20 19 18 17 15 15 14 14 12 10 11 12 13 14
21 24 31 31 29 27 23 29 34 35 38 25 19 23 23 23 21 21 21 19 18 17 17 15 14 16 13 13 6 12 17 20
19 24 31 32 32 27 22 24 25 28 31 29 26 23 25 25 24 22 23 21 20 20 18 16 15 16 17 10 5 6 9 13
21 22 30 31 34 30 32 30 27 29 35 29 28 25 26 27 24 23 23 22 21 21 19 19 19 17 17 22 20 13 5 6
23 23 25 31 34 32 34 27 26 26 27 27 27 26 27 26 24 24 24 22 21 22 20 20 21 23 18 15 19 20 18 14
24 25 26 30 35 32 35 32 28 26 30 29 33 33 28 25 25 23 25 22 21 22 21 19 21 21 21 20 19 15 16 18
26 28 28 30 33 36 35 35 34 34 35 35 32 30 33 35 27 24 22 21 19 19 21 18 20 21 21 20 19 22 21 20
29 30 30 32 34 36 37 39 38 35 35 37 35 36 35 35 28 27 26 24 24 22 21 22 21 22 23 22 23 22 21 21

GFSFLT2_925_spd_057.txt.gz
Wind_Speed
15 17 20 22 23 24 28 38 42 41 38 35 32 33 32 28 32 32 29 27 26 24 25 24 25 26 20 21 17 16 17 20
9 12 15 17 18 18 20 28 35 40 37 36 36 36 34 28 29 29 27 27 27 26 25 24 24 22 20 18 18 18 18 18
14 9 10 12 13 18 17 20 26 31 35 34 36 31 31 29 25 28 28 28 27 25 24 23 22 22 22 23 14 14 15 16
14 17 15 10 9 15 15 22 15 27 27 30 32 31 27 23 24 28 28 28 26 25 23 23 21 19 18 11 7 12 14 15
14 20 23 13 10 15 18 25 26 25 26 31 30 27 24 22 26 28 26 26 23 21 23 18 18 18 14 8 14 11 14 15
7 26 18 23 22 21 23 23 28 30 30 31 28 28 23 24 24 25 26 24 22 20 17 16 16 15 10 13 12 13 14 15
9 27 21 20 23 26 27 26 28 33 34 31 28 22 25 25 26 27 25 23 21 20 15 15 15 14 13 13 11 11 15 15
10 20 23 24 23 25 30 33 39 40 39 35 29 24 24 25 26 27 26 24 21 19 16 16 16 15 14 13 12 13 12 14
12 14 19 29 29 29 30 36 42 45 40 35 26 25 25 24 26 26 25 23 21 17 16 16 16 16 15 14 12 12 11 12
11 12 16 19 22 24 24 34 40 40 41 31 28 25 22 22 22 21 20 18 19 18 18 17 17 17 16 15 13 12 12 11
13 13 16 19 20 23 25 33 40 40 29 28 27 25 22 20 20 18 20 20 19 18 17 17 17 17 16 14 13 13 13 12
14 14 18 21 23 24 25 31 32 31 24 23 26 25 26 21 16 15 19 18 18 17 17 17 17 17 16 15 13 13 12 13
18 20 22 25 26 26 27 27 29 30 23 24 25 23 22 23 18 15 19 17 17 17 17 16 16 15 14 13 14 14 14 14
21 22 27 26 26 26 29 28 25 30 26 23 25 17 18 24 18 20 23 18 17 19 18 17 16 16 15 15 7 13 18 19
21 26 29 24 26 23 25 24 25 20 25 26 23 18 21 22 21 25 25 20 22 21 20 18 17 17 18 12 6 8 15 22
21 25 29 26 30 26 29 27 28 30 32 31 30 19 18 26 27 24 23 24 20 22 22 20 17 18 16 20 21 16 3 3
23 24 28 28 29 31 27 27 31 32 28 30 31 25 29 28 30 27 24 24 23 22 23 23 22 19 16 16 18 19 17 11
24 26 28 30 30 32 32 27 28 28 31 31 31 30 31 38 31 28 27 25 24 24 25 24 24 22 21 18 17 14 14 14
26 27 28 31 33 33 34 33 33 32 34 37 37 27 27 30 31 30 27 28 28 28 26 27 26 23 22 21 21 20 21 20
29 30 28 31 34 34 34 34 33 34 35 35 36 36 35 34 32 33 32 29 29 30 29 29 31 24 23 24 22 22 21 19

GFSFLT2_925_spd_060.txt.gz
Wind_Speed
11 12 16 17 18 17 18 7 14 29 41 40 37 35 33 30 29 28 26 25 25 26 27 29 28 26 23 14 14 25 27 23
11 9 14 13 17 14 19 13 7 22 39 40 39 35 33 32 30 27 26 24 25 26 27 29 27 24 19 17 24 24 22 24
4 7 8 13 12 16 16 11 3 20 39 40 37 37 31 31 29 26 25 25 26 26 27 28 25 21 22 24 19 21 26 22
5 10 11 16 17 17 18 19 11 12 33 36 32 33 34 31 25 25 25 26 25 25 25 25 22 24 21 14 14 24 23 21
8 13 15 19 23 23 22 19 17 13 29 34 31 30 30 27 31 28 27 25 24 23 24 24 23 21 15 7 14 23 23 21
8 15 17 15 24 23 28 29 28 24 27 30 33 27 24 28 31 30 28 24 24 26 26 22 18 16 9 15 16 26 24 21
4 13 19 16 19 23 26 30 32 31 31 31 33 28 23 23 31 28 26 24 22 26 23 22 20 15 12 17 6 25 20 19
4 12 16 20 20 20 25 28 34 39 36 34 30 28 25 27 29 27 27 24 21 20 17 21 21 15 16 13 14 21 19 16
8 12 18 19 19 22 23 27 33 36 39 38 36 28 27 27 31 31 28 25 24 21 22 20 18 18 16 13 13 15 19 22
12 12 14 19 19 21 23 29 35 40 43 43 39 30 29 29 30 31 30 29 28 21 23 20 19 19 18 15 15 13 15 21
12 14 14 14 16 17 22 27 32 42 43 45 36 27 24 26 30 29 29 31 27 23 22 21 21 20 21 18 17 16 16 14
14 14 14 14 13 13 19 22 35 37 43 42 32 23 23 23 20 19 21 24 21 22 21 20 20 20 21 20 17 17 18 18
17 16 17 16 19 20 24 23 26 34 35 34 31 28 25 16 14 16 17 18 19 18 18 16 15 20 16 20 17 14 17 20
19 19 21 21 25 19 18 31 28 32 27 27 25 29 29 20 18 21 20 15 19 20 20 16 15 19 12 17 3 11 19 20
23 22 25 23 25 24 23 25 29 28 23 29 26 28 29 28 25 29 30 20 18 20 22 18 18 18 21 10 3 4 13 22
26 24 27 24 27 25 29 24 26 30 28 32 29 30 32 32 26 29 29 25 19 24 26 23 20 21 23 24 19 6 2 2
27 26 27 27 28 28 28 26 27 32 23 27 30 34 29 31 30 24 24 28 28 28 27 27 23 21 24 23 28 20 12 8
29 29 28 29 31 28 29 29 29 30 26 28 27 26 31 30 32 28 27 26 31 24 26 27 29 25 24 19 15 7 9 10
27 30 28 30 33 32 33 29 31 32 34 33 33 29 27 29 33 36 28 30 29 30 26 28 29 32 26 26 24 21 20 20
29 28 28 31 33 34 32 33 30 30 35 36 36 34 31 31 35 39 33 32 34 33 33 33 34 32 31 30 27 26 24 27

GFSFLT2_925_spd_063.txt.gz
Wind_Speed
7 10 14 14 18 19 19 20 14 15 25 36 37 36 36 35 32 31 28 26 28 32 32 31 28 24 23 23 31 25 23 28
9 10 12 13 14 18 20 18 22 15 16 15 32 35 37 35 32 29 26 24 29 31 30 29 28 24 23 35 26 25 25 29
6 8 12 13 18 16 17 15 19 25 25 22 33 36 36 34 29 27 27 27 28 28 30 29 28 24 31 32 28 27 26 28
4 8 13 18 22 21 22 22 24 29 22 27 31 36 35 33 31 27 26 26 28 29 29 28 28 27 28 18 30 29 27 29
5 11 14 20 23 27 25 23 23 18 27 42 37 37 35 33 31 27 27 28 28 28 27 25 28 24 22 22 31 26 27 28
9 13 15 20 25 25 25 23 20 24 28 39 39 38 35 34 32 32 30 29 28 28 28 26 26 20 14 12 28 26 23 27
11 16 18 21 23 23 27 26 26 32 40 39 35 35 36 36 34 32 29 28 30 30 27 29 25 14 15 24 27 23 24 27
12 18 19 22 23 24 30 29 32 39 46 40 38 36 36 37 34 32 30 29 31 32 27 26 20 13 14 12 24 24 23 27
13 21 23 23 24 25 28 30 35 38 37 46 45 37 33 34 35 35 30 29 33 29 25 25 19 17 17 17 25 23 22 24
14 19 26 24 24 25 27 27 33 37 43 43 42 38 34 35 34 37 31 30 31 28 23 29 24 22 18 18 22 22 21 23
15 17 25 26 25 26 27 29 34 40 43 43 38 37 37 35 36 38 33 32 31 27 31 27 29 24 18 16 17 22 22 23
15 17 18 21 20 21 23 26 30 41 44 41 41 38 36 31 37 39 37 34 32 27 31 27 29 28 24 18 16 15 20 21
19 18 20 21 21 21 20 22 22 34 38 40 43 37 26 29 29 32 29 34 32 37 32 27 28 29 26 23 19 21 21 21
22 20 20 20 20 21 20 25 27 34 35 42 37 26 26 30 26 33 17 33 24 34 28 22 25 28 17 20 2 8 20 25
25 23 20 19 22 21 22 22 25 22 32 32 35 28 25 31 25 31 23 26 32 28 26 21 15 19 17 15 3 4 7 18
25 23 23 22 23 25 25 24 23 23 29 23 30 32 32 29 31 32 31 27 21 24 25 21 23 21 20 22 17 9 3 1
26 25 27 25 27 29 25 24 22 27 27 25 26 31 34 32 30 29 30 27 26 24 24 28 27 27 24 25 24 17 12 3
29 27 26 26 28 29 28 27 26 23 27 28 25 30 32 33 33 30 31 31 28 27 32 31 31 29 25 29 25 15 15 7
32 30 25 27 28 29 34 29 29 31 30 31 27 28 28 34 34 30 28 31 34 32 31 32 30 37 34 28 29 29 20 15
31 31 27 27 29 29 32 31 32 31 34 32 32 29 30 34 37 40 36 30 30 33 34 31 35 39 38 35 31 31 25 21

GFSFLT2_925_spd_066.txt.gz
Wind_Speed
12 19 19 19 22 26 27 32 30 23 17 23 31 37 37 33 32 32 28 27 33 35 33 32 27 20 25 30 28 28 29 29
12 13 15 17 17 23 24 20 20 26 14 15 21 25 34 33 33 33 29 28 36 35 32 29 23 26 32 29 27 26 31 30
12 14 15 16 15 15 18 22 28 27 23 19 16 18 27 30 31 31 31 31 35 33 31 27 22 31 32 30 27 28 30 28
9 11 15 17 18 20 21 24 28 31 29 30 20 18 25 32 31 31 30 35 33 33 30 26 28 34 34 29 26 28 27 27
9 11 14 19 22 23 23 25 25 28 30 40 33 33 30 34 33 31 31 33 31 30 29 27 33 25 27 26 27 26 28 28
12 11 15 21 23 24 24 24 26 30 34 35 31 33 38 36 32 32 32 34 34 33 31 29 26 21 25 29 25 25 29 29
14 13 18 20 24 26 26 27 28 25 29 33 30 42 37 35 32 34 35 35 35 34 31 30 26 22 20 27 26 26 28 29
16 17 19 21 23 25 25 23 23 23 27 35 39 44 43 39 37 36 37 35 34 33 32 30 24 16 18 29 25 26 29 28
15 19 20 22 21 21 24 24 21 22 31 39 41 41 43 40 38 37 34 36 36 32 31 29 21 15 21 27 26 28 27 28
18 19 22 23 22 23 25 26 29 29 36 43 38 38 41 40 37 38 37 36 34 32 33 29 20 15 21 26 27 26 25 27
22 22 23 25 22 24 25 24 35 35 36 35 35 38 40 39 39 39 38 37 37 33 31 28 23 19 20 25 28 25 26 27
25 23 26 25 25 26 25 26 32 35 37 36 38 36 37 38 38 39 40 40 40 35 31 28 27 24 21 24 22 24 25 26
28 27 26 27 27 25 22 25 29 33 36 33 41 35 37 37 37 39 39 39 40 36 29 33 31 27 23 21 21 25 25 26
29 28 27 28 27 24 18 22 26 30 37 33 37 40 37 36 35 39 39 40 38 36 33 29 27 32 17 16 3 7 24 28
33 31 29 28 27 23 17 20 17 23 28 32 36 36 37 34 33 38 39 38 36 35 37 31 23 33 26 11 2 4 5 18
33 30 29 26 25 23 24 20 15 18 25 31 35 36 28 30 32 36 31 36 34 39 36 34 29 27 22 25 15 10 4 1
34 31 29 27 28 27 24 18 19 20 23 28 31 35 27 32 32 38 26 32 33 34 24 30 31 33 24 25 26 15 11 3
33 33 31 30 29 30 28 24 19 22 22 25 32 32 30 30 31 34 33 26 26 30 34 30 30 32 34 27 26 13 10 5
29 32 29 33 30 30 27 28 28 27 28 26 31 30 29 34 36 35 37 29 27 30 34 34 33 36 37 35 31 29 26 20
28 29 28 32 32 31 30 31 32 29 31 29 30 31 33 40 37 37 39 38 38 38 33 33 35 36 38 32 33 31 31 27

GFSFLT2_925_spd_069.txt.gz
Wind_Speed
17 22 23 25 24 25 26 25 29 29 26 27 28 27 35 35 32 31 33 32 33 33 36 35 30 27 28 29 27 27 27 24
14 21 18 20 20 21 23 17 19 22 14 15 24 21 21 26 26 31 34 33 33 34 37 33 26 26 30 28 27 27 25 26
13 17 17 19 16 18 22 24 20 29 27 25 26 27 20 21 27 30 31 35 36 35 32 25 25 29 30 27 26 26 27 27
14 16 17 16 16 17 20 22 30 33 32 39 32 26 23 22 23 29 28 38 37 33 27 26 30 33 29 26 24 26 26 26
15 15 16 18 18 21 23 27 29 31 33 39 34 24 31 27 25 27 29 36 38 32 27 31 35 34 30 25 24 26 26 26
15 14 16 18 19 22 27 27 33 36 35 36 36 31 34 29 28 31 32 36 37 34 29 30 34 32 27 23 26 27 26 27
17 15 17 16 18 21 24 27 32 34 35 36 31 33 34 36 35 33 34 39 39 36 32 31 30 27 25 26 26 26 27 27
20 19 17 17 19 20 22 24 25 27 30 31 34 35 35 37 36 36 37 39 39 39 36 32 27 27 27 27 26 25 27 27
23 20 18 19 19 20 20 23 23 24 25 33 34 36 39 35 36 37 38 37 39 36 32 30 25 23 29 27 26 24 26 26
23 22 21 20 20 19 20 21 21 21 25 32 40 38 37 38 38 39 40 38 37 35 30 30 25 23 28 29 26 25 26 27
23 23 22 20 19 18 19 21 21 19 25 27 36 39 35 35 36 38 39 38 38 38 33 30 24 22 26 29 26 27 25 26
23 21 23 21 20 19 19 19 20 20 25 26 26 32 37 37 34 35 37 38 35 38 36 29 25 25 23 25 26 24 24 26
24 20 24 25 23 21 17 19 20 21 23 28 28 30 32 33 32 34 35 36 36 37 38 30 24 26 23 15 18 21 23 25
26 20 24 27 24 22 17 20 21 24 27 29 26 27 30 32 34 33 36 34 31 36 35 27 23 28 14 15 3 4 17 23
29 28 23 23 26 23 19 18 17 20 23 27 27 29 32 30 33 35 33 34 35 34 34 33 22 29 22 10 3 3 4 13
29 24 23 24 27 25 22 18 12 17 20 27 30 34 35 30 26 33 35 34 34 38 35 34 30 24 22 20 17 13 3 2
28 24 26 27 27 27 25 17 16 16 19 25 29 30 34 34 31 31 36 37 38 42 36 34 34 30 26 20 18 14 11 3
24 25 28 29 27 26 25 20 17 17 20 23 25 29 33 35 29 30 35 42 41 41 38 35 36 35 38 32 26 14 11 6
25 25 23 28 27 25 24 23 20 18 22 22 23 26 31 32 29 32 33 32 30 31 32 28 25 35 41 35 34 32 22 30
25 25 23 26 27 26 27 23 21 20 21 22 24 25 32 37 35 32 35 31 27 27 34 37 33 27 35 42 40 40 33 36

GFSFLT2_925_spd_072.txt.gz
Wind_Speed
16 17 20 22 23 22 23 23 22 24 23 20 25 22 26 22 22 28 30 30 32 32 34 35 33 30 28 27 26 26 26 26
15 17 20 21 19 20 22 23 23 22 22 25 13 18 23 24 24 27 30 32 32 34 34 34 31 29 27 26 25 25 24 24
13 16 18 18 17 18 17 20 19 24 30 28 21 22 23 24 23 25 32 32 34 34 32 31 28 27 27 25 27 25 24 23
13 16 17 16 17 17 20 23 21 33 33 30 33 30 24 27 23 22 28 32 34 33 33 29 28 29 27 26 25 24 23 23
17 16 17 17 16 18 24 30 31 31 28 32 28 36 31 29 25 22 25 32 33 34 30 28 28 30 28 25 23 24 24 23
17 17 17 17 16 19 23 27 28 28 32 33 39 35 36 35 31 29 26 36 36 35 33 30 30 30 28 24 24 24 23 24
19 18 18 18 16 19 23 27 30 33 35 40 40 39 34 36 33 28 31 38 36 34 33 33 33 31 26 24 24 23 24 25
19 18 20 18 17 21 23 26 29 32 37 42 39 35 34 34 31 34 34 40 36 32 33 35 33 30 26 25 25 23 25 25
22 21 19 19 18 18 21 24 25 28 34 35 37 37 35 33 32 34 37 40 36 31 30 32 32 30 26 27 22 22 23 24
22 21 20 19 19 19 19 17 21 22 24 32 37 32 34 33 33 33 38 40 38 34 33 32 31 27 28 25 22 22 23 24
23 21 20 18 17 16 16 16 20 20 23 24 30 34 33 35 32 32 37 39 37 35 34 32 28 27 28 26 24 22 23 22
22 20 20 18 16 18 16 14 16 18 17 23 31 31 38 35 33 33 36 37 37 36 36 31 28 26 23 22 21 21 21 23
22 21 22 20 19 16 17 16 15 16 14 7 35 30 40 34 33 33 36 37 36 34 33 33 25 26 24 13 12 17 20 21
20 21 23 23 23 18 14 16 14 14 15 17 27 26 31 33 32 34 36 37 37 38 34 28 21 30 13 14 3 3 13 20
23 23 23 24 24 19 14 14 9 12 16 18 21 25 28 31 30 29 33 36 36 38 36 31 23 30 22 8 3 3 5 14
23 22 22 24 24 21 21 14 10 10 16 20 21 25 26 29 31 28 31 32 33 37 38 31 29 26 24 10 12 10 3 2
27 23 21 24 25 23 22 16 15 14 15 18 22 25 29 31 32 35 34 34 35 34 36 35 27 29 23 21 14 14 12 4
26 20 18 21 24 24 23 20 16 13 14 17 21 24 30 32 29 37 33 33 32 32 36 36 32 24 33 28 23 13 8 4
24 23 19 20 23 22 21 19 18 15 16 18 20 19 26 32 35 31 28 29 30 33 33 35 34 30 28 33 32 31 22 23
24 22 17 18 20 19 18 18 18 17 17 19 21 22 23 29 32 32 29 27 32 34 31 33 32 33 29 28 32 37 32 25

GFSFLT2_925_spd_075.txt.gz
Wind_Speed
16 17 21 20 20 21 23 23 22 23 24 23 24 19 18 22 24 22 23 26 28 29 32 32 30 29 27 26 25 22 17 17
16 15 19 20 20 20 22 22 21 21 19 21 19 20 15 15 19 23 22 27 29 31 32 32 31 28 26 25 24 21 17 17
16 16 16 18 19 20 20 22 23 22 22 22 22 28 28 21 16 19 24 26 30 33 32 32 31 27 26 24 22 15 16 15
17 17 16 18 19 18 19 20 23 24 25 29 28 30 26 28 23 23 26 27 32 32 33 31 28 23 22 22 15 17 14 15
17 16 17 18 19 18 20 22 23 26 32 33 36 28 25 28 30 27 25 25 28 29 30 26 22 22 20 17 17 17 14 16
18 18 17 18 17 17 23 26 27 29 32 37 32 27 31 35 35 27 27 30 29 26 25 22 22 22 21 19 17 15 16 16
20 19 18 18 16 18 22 25 29 30 33 33 34 32 32 34 33 28 32 33 30 27 23 22 23 23 20 19 18 15 16 16
21 19 18 18 19 19 21 23 30 32 34 34 37 36 30 34 32 32 32 34 30 26 23 21 21 20 21 19 17 16 17 18
21 20 19 19 19 19 21 24 24 26 30 31 35 35 34 35 31 33 33 34 32 24 21 19 19 19 18 18 16 18 17 18
19 20 21 20 21 18 20 20 24 28 30 34 36 38 35 33 32 33 35 33 35 25 23 20 20 19 18 17 16 17 17 17
21 21 21 21 19 17 16 19 21 22 27 30 31 33 36 33 34 36 36 32 36 28 22 22 21 19 16 15 15 15 18 16
22 22 21 21 18 14 14 14 16 17 20 21 27 26 37 33 34 37 37 31 29 26 23 21 22 19 16 14 12 13 14 14
23 23 22 22 16 15 17 17 16 17 18 18 22 29 37 36 38 39 36 32 32 35 25 23 17 18 17 11 9 10 11 12
24 22 23 21 15 19 12 18 17 17 14 16 20 30 30 39 37 38 34 28 28 34 31 25 17 23 13 17 6 6 10 14
26 24 21 21 20 17 12 16 14 14 14 14 15 28 34 38 35 34 33 30 32 35 34 29 20 22 18 10 4 5 9 9
24 24 22 23 22 20 19 12 12 12 18 16 21 21 29 32 26 30 35 32 31 33 33 32 26 24 20 8 12 11 5 4
23 23 21 22 22 23 20 15 13 15 15 16 18 22 26 31 30 30 31 32 33 34 31 27 27 25 22 14 9 8 9 4
24 25 22 23 22 21 22 20 18 16 17 13 17 20 22 26 30 30 29 30 33 35 36 36 29 25 25 22 17 12 9 6
25 24 22 24 21 20 22 21 19 19 18 17 18 21 23 29 29 32 32 29 30 33 35 36 33 31 32 28 28 26 21 18
24 24 21 22 23 20 21 17 17 16 16 15 16 20 22 26 30 35 35 34 34 34 35 34 39 36 33 32 30 30 29 23

GFSFLT2_925_spd_078.txt.gz
Wind_Speed
13 17 17 17 17 20 23 21 19 19 20 20 22 19 25 28 26 23 21 20 26 27 28 30 29 29 28 28 26 18 11 10
13 15 17 16 17 17 19 21 19 17 18 18 19 26 22 21 17 19 18 23 25 27 29 29 29 28 26 26 22 18 11 10
13 14 15 18 15 17 19 20 19 19 18 19 21 27 22 20 25 23 20 18 22 27 30 29 27 25 24 22 18 12 11 9
13 16 14 16 18 13 16 16 20 18 18 20 20 25 24 24 27 25 24 23 21 24 29 28 26 20 19 20 12 11 11 10
14 14 13 15 18 14 15 16 18 20 20 22 25 23 21 22 26 26 25 26 26 21 25 25 21 20 19 16 12 13 10 10
16 15 14 15 14 14 14 15 16 19 21 22 24 24 22 20 28 22 27 28 28 26 26 24 21 19 18 15 13 11 10 11
18 15 15 15 15 14 16 15 14 19 21 24 25 24 22 22 21 24 29 30 32 29 25 22 20 18 17 15 14 11 12 12
19 16 14 13 13 15 16 13 15 18 23 25 24 26 24 25 27 25 28 33 31 26 24 22 20 18 17 15 13 12 13 13
21 18 15 15 13 13 15 18 19 17 19 23 25 27 28 29 29 28 30 34 31 25 24 22 20 18 17 15 13 13 15 14
21 18 18 16 13 12 14 17 19 20 21 24 25 26 26 25 28 28 32 35 33 24 24 23 21 20 17 16 13 13 15 15
23 20 19 17 14 14 14 13 18 21 22 24 25 28 27 33 31 29 34 35 34 25 24 23 21 20 18 15 14 13 14 15
22 21 20 17 15 14 13 12 17 18 20 23 26 30 31 35 31 34 34 35 31 24 25 23 22 21 19 17 14 13 13 14
24 23 22 21 17 15 14 12 15 16 18 17 19 31 18 36 34 36 36 39 37 28 25 25 23 21 19 15 13 11 12 13
26 25 24 22 19 16 12 15 16 15 16 16 15 18 25 35 36 36 38 36 34 29 28 26 24 25 21 19 7 7 12 15
27 27 25 23 19 16 13 14 10 11 15 13 17 18 21 29 37 38 37 36 35 30 28 29 26 27 25 21 7 6 14 16
26 26 26 24 22 18 17 15 10 11 12 14 12 12 23 28 39 37 37 33 32 31 30 29 26 26 24 25 18 10 11 6
27 26 25 24 22 18 17 13 13 12 12 13 13 13 20 27 36 35 36 33 29 30 29 29 27 26 25 25 17 12 17 10
27 27 25 24 22 20 19 16 16 15 13 12 14 17 19 21 27 28 32 31 28 30 30 31 28 25 25 23 22 20 15 13
27 29 25 25 23 21 21 17 16 13 15 13 15 16 20 23 23 25 30 30 26 26 29 30 29 27 27 26 23 20 19 17
25 27 25 24 22 20 20 18 15 13 13 13 12 14 15 19 25 30 30 33 32 29 27 29 28 28 26 27 24 20 21 19

GFSFLT2_925_spd_081.txt.gz
Wind_Speed
11 14 13 14 13 16 16 16 15 17 18 17 19 19 21 19 24 23 22 19 20 23 24 27 27 27 26 24 20 15 15 15
11 13 12 11 11 12 16 17 15 14 15 16 17 20 22 18 11 11 19 14 19 21 23 26 28 28 27 25 18 13 16 15
12 13 13 11 11 12 13 16 17 16 14 16 17 16 19 18 22 13 15 19 16 18 19 26 26 27 26 24 18 12 7 15
14 13 13 12 11 13 13 14 16 16 14 15 16 17 18 21 31 17 20 19 22 17 17 22 25 21 21 20 15 10 11 10
17 14 14 13 12 14 13 16 16 18 17 16 17 19 20 23 18 24 26 25 22 23 21 21 21 21 20 18 13 10 11 12
18 16 16 14 11 14 14 13 16 15 17 17 17 18 24 21 20 27 27 28 27 27 27 24 21 20 21 18 13 13 10 16
21 19 17 14 15 15 15 13 12 16 17 19 19 20 23 22 20 25 25 28 31 32 31 26 21 21 19 15 14 9 11 12
22 20 18 16 16 15 14 13 11 13 15 17 20 21 21 24 24 23 23 27 31 30 31 28 23 22 22 17 16 11 11 9
25 21 19 17 17 13 12 13 15 16 16 17 20 19 22 22 21 24 24 30 30 30 28 25 25 23 20 17 14 12 14 13
26 23 20 19 16 14 12 13 13 15 17 21 18 17 20 22 24 24 23 26 28 29 27 24 23 20 21 18 15 13 14 14
26 23 22 20 16 15 13 12 14 17 15 18 17 18 20 24 23 27 27 28 29 29 24 23 23 22 20 18 16 15 14 15
26 24 22 20 16 14 12 10 14 15 13 15 15 18 23 24 28 29 29 28 31 31 24 21 22 23 23 16 14 15 15 15
27 25 24 22 19 17 15 13 13 12 12 14 16 17 18 22 26 31 30 31 31 34 26 24 23 27 15 20 12 9 9 15
27 26 26 23 19 16 12 15 13 13 13 13 14 17 19 20 34 33 34 31 34 33 26 24 22 26 20 19 4 4 8 11
28 27 26 23 19 16 13 14 10 12 12 12 13 14 14 17 28 35 33 36 37 36 30 27 20 23 25 19 6 5 13 16
28 27 26 24 21 18 18 18 14 15 13 11 10 11 14 18 20 38 39 38 36 36 32 28 26 24 23 24 19 10 11 6
27 27 26 24 24 19 19 18 16 13 12 11 11 8 10 13 25 32 36 36 38 35 30 29 25 24 22 19 17 16 13 11
28 29 27 25 24 19 18 16 16 13 13 12 13 10 9 12 25 31 34 34 38 38 32 27 25 21 21 19 15 12 9 10
29 29 27 26 23 19 17 16 16 15 15 14 14 15 13 17 20 27 28 31 33 37 34 27 25 23 22 21 18 15 15 11
29 29 27 25 23 20 19 17 16 13 12 13 13 15 15 16 20 22 27 26 32 29 24 23 23 22 21 19 19 21 16 16

GFSFLT2_925_spd_084.txt.gz
Wind_Speed
8 12 13 11 13 13 12 13 12 13 14 15 15 16 15 19 19 12 13 12 19 20 22 22 24 23 24 27 20 18 16 20
10 11 11 11 11 12 13 13 12 12 14 13 14 12 17 19 19 20 14 14 16 17 19 23 24 23 26 26 19 16 19 19
15 14 11 11 10 8 10 13 12 12 13 13 13 15 17 19 20 26 21 15 14 16 16 17 21 23 22 25 18 16 23 21
17 16 16 15 14 13 8 8 13 14 11 12 14 16 16 23 22 23 14 21 12 14 15 15 19 23 23 21 17 8 21 23
21 18 16 17 14 15 11 13 13 14 15 15 17 17 18 21 25 24 20 24 24 22 21 19 20 23 22 21 15 7 26 22
24 18 19 18 16 14 15 17 18 18 17 16 17 20 22 23 30 24 24 27 28 29 27 24 25 21 21 18 12 13 26 24
29 22 21 20 17 15 16 9 20 18 16 17 17 21 21 23 24 23 25 30 30 30 27 26 28 25 23 18 15 12 19 21
31 27 24 21 19 17 20 16 9 16 13 16 17 19 20 22 22 23 27 31 30 30 27 26 25 25 26 19 19 14 20 18
31 30 25 21 18 17 19 18 11 13 13 13 19 20 22 23 23 23 25 25 27 25 25 25 26 27 29 25 20 15 15 20
30 31 29 21 20 19 17 16 16 17 14 18 16 18 21 23 23 23 25 27 27 28 28 28 29 29 25 22 18 15 15 19
34 32 30 24 20 22 17 15 15 14 17 18 19 18 19 23 23 25 28 26 26 30 27 25 27 26 31 23 20 17 17 16
35 32 28 25 20 18 16 16 15 16 17 19 21 18 18 22 22 23 24 25 26 25 25 28 26 23 24 21 23 22 19 16
34 31 28 27 22 22 20 20 17 17 19 16 18 17 19 22 25 22 26 24 27 28 25 28 26 21 23 22 19 18 20 15
31 29 29 28 22 22 20 19 20 19 17 17 17 19 20 23 26 28 28 26 27 31 28 20 22 24 19 14 3 4 8 13
30 30 29 28 22 21 17 16 14 15 16 17 16 17 19 19 24 31 28 29 29 33 33 26 20 24 30 14 4 3 6 8
29 30 28 26 24 22 21 20 15 14 14 17 15 15 16 19 23 30 33 31 31 35 37 33 22 21 26 25 15 16 4 3
28 31 28 26 24 22 20 18 17 15 17 16 15 15 13 18 23 26 31 34 33 34 35 30 27 24 19 22 20 13 19 6
29 31 28 27 25 25 24 22 19 17 18 18 15 14 13 16 20 25 28 33 35 36 34 35 32 25 24 25 21 10 8 7
29 29 27 28 27 24 23 19 17 18 21 18 17 15 11 10 12 23 29 29 33 39 33 34 34 25 26 28 18 13 10 3
28 26 25 27 27 22 20 19 19 16 19 18 19 17 14 11 14 22 25 28 31 36 40 32 34 28 26 23 20 15 11 5

GFSFLT2_925_spd_087.txt.gz
Wind_Speed
17 18 18 17 17 16 15 15 14 13 12 13 12 14 15 15 18 17 16 9 11 14 20 24 24 26 28 25 24 24 25 27
13 17 18 17 17 16 15 15 14 15 15 15 14 13 15 19 20 22 21 14 15 18 22 25 26 26 30 26 23 22 23 26
14 15 17 17 14 14 16 15 15 15 16 15 14 15 15 20 22 23 21 14 24 20 20 19 22 26 30 26 21 22 22 24
18 15 15 16 15 13 14 15 16 16 16 15 15 16 16 19 18 21 22 18 21 17 20 19 23 27 29 24 20 19 21 24
25 20 17 17 18 15 15 13 17 18 16 16 16 17 17 18 19 22 23 22 22 18 19 18 23 27 28 26 20 14 25 25
30 25 25 23 19 20 17 17 17 18 19 17 20 19 18 18 21 26 26 25 26 29 24 21 24 28 27 25 19 17 30 26
35 31 29 27 23 21 19 19 22 19 22 22 21 21 20 20 27 28 26 27 30 31 27 26 25 28 27 25 16 25 29 29
40 36 33 29 29 24 21 13 26 23 24 23 22 21 22 23 30 29 26 28 30 30 30 25 26 26 28 27 19 25 29 29
43 39 34 32 33 25 25 16 21 24 23 21 20 21 22 24 26 29 30 30 30 30 27 25 24 24 27 26 20 28 27 28
44 41 38 36 35 30 23 21 20 22 22 22 20 20 23 24 26 26 28 30 32 31 28 24 23 26 23 21 26 29 28 28
39 43 43 40 31 25 22 20 20 21 22 20 18 20 23 24 28 26 27 30 31 29 26 30 27 28 27 25 30 28 28 22
43 45 42 37 28 25 23 21 19 23 22 21 20 19 22 25 27 28 30 26 26 27 30 29 27 26 27 21 24 22 22 25
39 37 38 36 34 33 28 27 23 22 21 22 20 21 23 25 28 29 29 28 28 28 27 25 24 34 21 20 23 24 22 21
36 39 43 39 37 33 25 28 22 21 20 18 18 21 21 25 27 28 26 25 25 28 26 20 20 28 17 20 4 8 17 18
37 40 40 35 34 29 18 23 19 21 21 19 21 22 22 24 25 25 26 25 25 27 28 26 20 27 22 14 6 4 8 12
39 40 39 33 32 30 30 24 19 20 26 22 22 23 24 23 26 25 28 28 28 31 32 31 25 28 21 20 13 19 7 2
36 39 37 35 32 30 31 25 22 24 21 20 20 21 22 24 24 27 30 31 32 33 35 33 30 27 24 23 16 22 19 4
38 40 36 39 33 33 32 28 24 24 23 23 24 22 20 20 23 28 28 32 32 34 39 37 32 29 29 26 21 11 13 6
34 34 32 36 35 34 31 28 27 27 26 27 25 21 19 19 23 24 30 32 34 35 35 35 34 33 31 27 23 17 20 18
34 30 29 34 33 33 28 27 28 26 27 27 23 20 20 19 21 22 26 29 27 34 32 33 34 31 32 23 26 20 14 18

GFSFLT2_925_spd_090.txt.gz
Wind_Speed
24 21 20 18 19 19 19 19 19 19 18 18 17 16 16 17 17 18 19 19 19 17 19 16 19 25 28 24 24 26 25 26
26 22 20 21 20 19 19 19 19 18 17 16 15 16 17 19 21 21 23 19 20 22 25 26 25 26 29 26 26 25 27 29
25 24 22 21 20 19 19 19 19 19 19 19 18 17 18 20 21 22 22 22 23 25 24 26 23 26 28 28 26 26 27 30
24 23 24 21 20 20 20 20 21 20 21 21 20 19 19 20 20 23 23 23 24 22 19 13 27 25 27 28 25 25 27 30
27 24 22 23 22 21 21 21 21 21 21 21 20 21 20 20 22 20 22 21 21 17 18 21 24 26 29 26 25 24 26 29
31 29 28 26 25 23 22 22 22 23 23 23 22 22 21 22 22 22 24 24 21 21 15 28 23 26 32 26 25 21 27 27
36 34 32 30 29 28 24 22 23 25 24 25 25 23 23 21 23 24 26 26 24 23 27 31 29 28 31 29 25 23 27 29
39 36 33 33 34 32 29 25 24 25 27 28 24 23 23 22 24 26 29 25 25 29 32 29 32 31 30 29 27 24 30 31
40 41 38 36 36 33 31 27 27 28 28 29 26 24 23 22 26 28 28 26 27 29 31 30 30 28 28 21 26 28 31 31
39 41 42 39 39 36 31 32 26 32 30 31 28 25 24 24 26 29 29 27 26 28 31 29 28 28 27 23 25 30 32 32
40 40 43 44 41 39 36 30 25 30 30 31 27 25 25 26 26 28 31 29 28 28 31 30 25 23 21 24 27 32 33 31
38 43 44 37 38 37 34 30 26 27 29 29 28 25 26 28 27 26 27 29 28 28 30 32 28 27 24 26 23 31 35 33
34 37 36 39 38 35 32 33 30 28 27 27 27 26 26 29 27 27 28 30 31 29 30 29 25 27 21 19 13 23 32 33
37 42 45 44 41 34 29 34 31 28 27 25 26 27 27 29 29 29 30 29 25 27 29 20 19 28 11 22 4 6 16 31
37 42 46 38 37 33 25 29 23 22 26 26 26 25 27 27 27 30 30 27 25 29 31 28 21 21 28 9 4 4 12 19
40 42 41 39 42 33 37 32 24 19 21 27 24 23 25 24 24 26 28 28 26 28 31 30 25 22 26 24 4 14 5 3
36 39 38 38 40 39 35 25 22 24 24 26 25 24 22 22 22 25 26 26 26 25 25 30 30 27 28 22 17 23 14 5
26 34 33 35 37 38 36 32 29 27 27 27 26 25 24 22 24 27 26 27 30 28 29 30 31 28 25 25 25 16 13 8
21 27 29 37 38 36 35 34 33 30 31 28 21 21 23 23 25 25 26 28 29 30 32 32 34 35 32 28 28 23 26 21
23 20 17 30 34 31 35 33 31 29 30 27 23 26 24 24 23 23 26 27 29 32 33 33 32 34 34 32 26 22 27 28

GFSFLT2_925_spd_093.txt.gz
Wind_Speed
33 30 26 24 24 24 22 21 20 20 20 21 21 21 20 20 20 19 18 18 18 19 19 19 20 21 24 19 23 25 26 26
32 30 29 27 25 23 21 20 20 20 20 20 20 20 20 20 21 21 21 20 20 18 20 21 20 18 20 17 24 26 25 26
29 29 28 28 26 24 22 20 20 20 19 19 19 20 20 21 22 22 21 20 20 21 23 24 25 24 20 19 26 27 27 28
29 28 28 27 26 25 23 21 22 21 21 20 20 20 20 21 21 20 21 21 20 23 26 24 24 26 26 22 28 28 29 28
30 29 29 29 28 27 25 24 23 22 22 22 22 21 21 21 21 21 23 21 21 22 22 23 25 29 28 29 30 27 29 29
33 32 31 30 30 29 29 27 25 24 24 23 25 23 24 24 23 23 23 23 22 23 23 24 26 30 29 28 30 28 28 29
35 34 35 34 33 32 30 30 29 27 25 26 26 26 26 26 26 25 24 24 24 23 23 21 29 27 25 29 26 27 27 28
34 38 37 36 35 34 33 30 29 28 28 29 27 28 27 26 27 24 22 25 27 25 23 28 29 28 26 26 25 25 26 28
42 39 40 39 38 36 34 32 30 31 31 30 29 29 27 27 26 24 22 24 25 25 24 29 29 29 28 26 27 23 26 29
41 43 40 41 40 38 36 33 32 32 32 31 31 29 27 26 24 26 24 24 25 24 28 29 24 26 27 28 27 22 24 27
37 40 41 44 42 40 37 36 35 35 32 32 32 30 28 26 25 25 25 25 25 24 28 28 25 25 27 28 27 26 25 28
38 41 45 43 38 34 36 35 34 34 35 34 33 32 30 28 26 25 27 24 24 23 25 26 26 24 20 25 27 27 27 27
32 36 38 36 33 31 27 33 36 33 35 35 34 33 30 29 27 26 27 28 26 28 24 24 21 23 18 13 18 18 25 30
30 37 40 41 38 36 25 31 30 35 36 33 33 32 30 29 30 26 25 27 27 27 27 19 17 28 11 12 2 2 11 25
28 38 42 43 35 31 22 27 21 22 30 32 32 32 30 30 30 27 28 27 28 29 29 24 20 23 22 8 3 3 6 10
30 35 40 35 36 38 37 35 20 26 29 34 34 30 30 29 29 29 29 30 28 27 29 28 25 20 22 24 9 8 5 4
25 33 32 32 43 39 38 26 24 21 23 25 32 28 27 28 28 27 28 29 29 27 27 27 29 23 25 17 16 15 12 5
14 25 27 30 32 34 36 33 31 28 27 23 30 28 26 26 25 25 26 27 27 28 28 29 29 26 26 25 26 19 14 7
22 21 25 26 28 28 34 36 36 34 30 28 28 26 23 25 24 25 25 27 27 27 26 28 29 28 29 29 28 27 25 19
24 15 20 24 24 29 30 35 31 32 34 32 29 24 22 23 25 25 25 24 25 25 27 28 30 31 29 26 30 27 30 26

GFSFLT2_925_spd_096.txt.gz
Wind_Speed
34 33 32 31 29 27 26 24 23 21 20 20 20 20 19 20 21 21 21 19 18 19 19 19 19 18 17 19 21 20 22 24
30 28 30 29 29 28 27 26 24 22 21 21 20 20 20 20 20 21 20 20 20 20 19 20 21 22 21 20 19 18 19 23
24 23 25 27 27 27 26 25 24 23 21 21 20 21 20 21 21 22 21 19 20 20 21 24 24 24 24 23 18 17 19 25
26 25 25 24 26 26 26 25 25 25 24 23 22 22 22 22 22 22 21 20 20 21 22 24 27 25 26 23 23 21 23 28
25 26 27 27 26 28 28 27 27 26 25 24 23 22 22 22 22 22 22 23 23 23 23 27 28 29 29 27 25 24 26 29
25 26 26 30 29 30 29 29 28 28 27 26 25 25 24 23 23 24 24 26 24 23 25 25 28 28 27 28 27 25 26 29
27 30 31 31 30 32 32 31 30 30 29 29 28 28 26 25 24 24 25 26 24 26 26 26 27 27 28 30 29 26 26 28
35 35 36 34 34 33 33 31 31 31 31 31 30 29 28 26 25 25 25 26 26 26 25 23 24 25 26 27 25 24 25 26
36 40 40 40 40 39 38 35 30 31 33 31 31 30 28 26 26 26 26 26 25 24 22 21 22 25 26 26 25 25 23 23
35 39 39 44 44 42 42 38 34 33 33 32 32 30 28 27 25 26 25 23 22 26 22 20 24 25 26 24 27 24 20 19
32 34 39 41 47 44 42 40 37 34 32 33 32 30 28 27 25 25 24 25 25 25 23 21 22 23 24 24 23 25 25 20
32 34 38 41 39 34 34 37 38 37 36 37 33 31 30 26 24 24 25 26 26 26 23 25 24 22 19 19 24 29 28 25
28 33 36 35 32 29 28 31 34 34 38 39 35 32 31 29 26 24 26 27 27 28 22 24 19 22 15 14 14 24 27 28
21 30 35 37 34 35 27 33 31 32 28 30 38 36 32 32 29 27 27 26 27 27 25 17 17 26 10 13 3 2 14 24
24 23 29 37 36 33 26 23 17 20 24 32 32 38 35 33 30 29 28 27 28 29 29 25 17 25 24 8 3 3 4 10
27 25 25 34 34 33 34 32 23 26 30 25 18 30 34 31 31 29 28 29 27 29 29 29 22 18 22 20 9 14 3 2
26 28 24 29 34 37 36 30 26 26 31 28 33 34 27 32 33 31 29 28 27 29 29 30 31 21 24 15 14 13 10 3
28 27 25 29 33 34 35 31 28 28 28 27 31 34 34 35 33 32 28 28 28 28 27 28 28 27 25 22 22 11 9 5
30 28 26 24 28 28 29 29 30 31 36 35 32 30 33 35 33 30 26 26 25 26 27 27 28 28 28 28 25 25 19 20
32 31 32 20 24 24 22 26 25 25 24 26 29 31 28 29 30 28 24 23 23 23 26 26 27 29 26 27 26 28 29 29

GFSFLT2_925_spd_102.txt.gz
Wind_Speed
15 17 21 26 26 25 24 23 23 22 22 22 22 23 25 24 24 24 20 19 18 18 17 16 19 19 19 18 19 20 15 15
15 16 15 17 18 24 23 22 22 22 21 21 21 21 23 24 25 24 21 20 19 19 19 18 19 20 19 19 19 20 15 16
13 13 13 15 16 17 22 22 22 22 22 21 20 18 20 21 23 24 23 22 21 19 19 19 18 20 21 20 20 17 18 17
16 15 13 15 14 15 17 18 19 19 18 18 19 19 19 19 21 24 24 23 22 20 19 19 19 17 18 20 19 18 19 18
13 17 19 18 16 14 14 17 19 21 21 21 21 20 20 21 19 21 20 22 19 19 18 19 18 18 18 19 21 18 17 17
9 13 16 19 18 18 16 19 19 21 25 26 24 23 21 20 22 20 22 21 22 19 19 19 19 20 18 19 18 17 17 16
9 12 16 18 22 21 22 22 23 23 21 23 23 20 21 20 20 21 21 20 22 20 19 19 19 19 19 17 18 18 18 16
8 11 16 18 20 22 24 24 25 23 22 24 27 22 23 22 22 21 22 21 21 20 19 18 18 18 18 17 18 18 18 17
10 9 13 19 22 23 24 24 25 26 24 26 28 30 24 24 22 22 21 19 18 17 16 16 16 16 18 17 18 17 18 19
14 12 12 15 22 24 25 25 25 25 24 25 28 34 27 26 22 23 22 22 19 19 20 19 19 18 17 17 19 19 19 19
20 16 15 14 19 24 27 29 28 26 25 26 28 35 32 28 25 21 22 27 20 20 20 20 16 18 17 16 17 19 19 16
19 21 19 18 18 22 26 28 28 29 29 29 27 32 35 30 25 24 25 26 19 19 18 19 18 16 14 13 15 13 13 14
19 21 21 20 19 20 25 28 30 32 33 33 29 27 35 32 28 26 28 27 23 22 17 20 18 17 13 10 8 12 14 15
20 21 23 22 21 21 25 27 29 31 30 30 27 31 34 34 31 30 29 25 25 23 20 17 15 23 8 8 3 3 11 16
23 23 23 24 23 23 24 28 27 24 28 29 34 32 33 33 32 31 27 25 25 22 22 21 15 22 20 8 3 4 3 8
24 23 24 24 23 23 24 28 28 32 31 33 32 34 36 36 37 37 32 28 25 24 24 22 20 20 19 24 12 8 5 3
25 23 25 26 24 23 26 29 32 30 26 28 29 35 40 38 38 37 40 36 31 26 24 26 25 22 23 18 16 12 10 3
24 24 27 26 25 25 27 32 35 30 27 26 27 31 36 39 37 34 33 30 31 33 31 27 26 24 26 21 23 13 14 8
26 25 30 29 28 27 26 32 37 31 30 24 22 27 28 35 37 36 39 37 33 34 29 29 28 28 26 25 26 24 18 19
28 29 33 35 32 31 28 27 31 29 26 21 24 25 29 27 36 41 32 39 29 29 29 28 27 29 28 28 25 26 25 23

GFSFLT2_925_spd_105.txt.gz
Wind_Speed
12 9 19 25 26 25 23 21 20 19 19 20 21 22 22 22 24 23 22 20 18 17 16 16 17 16 16 16 16 15 14 14
12 12 17 17 18 25 24 22 21 20 19 19 20 21 21 22 23 24 22 20 18 18 18 17 17 18 17 17 17 16 17 16
11 12 16 17 18 18 23 21 20 20 19 19 19 16 18 20 22 22 24 22 20 19 18 18 17 18 18 18 18 16 17 15
11 14 15 16 15 15 17 17 17 17 16 16 17 17 17 19 20 23 23 23 21 20 19 19 18 15 17 21 19 18 20 13
10 14 14 15 15 15 14 20 19 19 20 20 19 18 18 18 18 19 20 23 20 21 19 18 18 18 17 17 18 20 16 15
7 10 13 16 16 17 17 19 20 20 22 23 22 21 21 20 22 20 21 21 23 22 22 22 22 21 19 18 19 20 17 16
5 6 10 13 16 18 19 20 21 22 21 22 23 23 22 22 21 22 21 21 22 23 23 24 22 21 21 18 18 18 18 13
4 7 8 12 15 16 17 20 21 22 23 25 30 25 23 21 22 23 22 21 22 22 22 18 21 20 19 19 19 18 16 14
5 6 6 10 15 18 19 20 20 23 25 24 28 30 28 24 24 20 21 19 23 23 18 21 18 17 18 19 18 18 16 14
8 8 9 9 12 17 21 23 23 24 25 26 26 28 31 29 24 25 23 21 18 21 22 20 20 17 16 17 18 18 16 15
10 11 10 11 13 15 20 25 25 26 26 27 27 31 31 31 28 26 24 23 19 22 20 19 17 17 15 15 16 16 15 15
15 14 13 14 15 17 18 24 26 29 29 29 28 30 33 33 29 28 26 27 23 24 23 20 18 18 16 13 13 14 12 14
16 18 17 17 17 18 20 22 26 28 31 31 29 29 31 32 30 29 30 30 27 26 24 20 19 15 10 9 11 12 14 13
15 17 19 19 19 20 22 23 27 25 29 29 31 30 28 33 32 30 31 29 27 27 24 18 15 21 8 7 2 5 10 14
16 17 19 20 20 22 23 25 28 31 26 27 28 34 35 37 33 34 33 31 31 30 26 24 19 21 18 7 3 4 3 9
17 18 20 19 19 21 21 25 27 25 31 26 28 33 33 35 38 39 32 31 30 32 28 25 22 20 22 24 16 4 5 2
20 21 21 21 21 20 21 24 28 30 33 29 28 31 32 35 38 37 33 30 30 27 22 26 26 22 24 16 22 13 14 5
21 22 24 22 22 22 23 25 27 31 30 31 28 26 31 33 33 34 35 35 35 37 21 33 31 28 26 23 20 12 12 12
23 23 25 25 24 24 24 26 28 32 36 33 27 24 26 31 35 36 38 40 42 39 27 41 35 29 28 27 24 23 20 19
24 26 26 27 27 28 28 27 26 31 38 34 27 25 25 27 36 36 37 33 26 26 28 33 29 28 26 24 24 25 21 19

GFSFLT2_925_spd_108.txt.gz
Wind_Speed
7 9 14 20 23 22 21 18 16 17 18 18 19 19 19 19 20 20 21 20 18 16 14 13 13 13 13 13 14 13 14 16
8 8 7 19 24 23 22 20 18 17 17 18 18 18 18 19 20 21 21 21 20 17 15 14 13 14 14 14 14 13 15 18
11 7 11 14 16 21 22 20 19 18 17 18 18 19 19 20 21 22 22 22 20 18 16 15 14 14 16 16 15 16 16 17
12 13 11 16 15 17 21 22 21 21 20 18 18 17 16 18 19 22 21 23 21 19 18 16 16 15 17 18 18 19 16 14
14 14 15 17 19 14 19 20 20 20 19 19 19 18 19 18 21 21 23 22 22 21 20 19 19 18 17 16 20 20 19 19
13 15 14 15 19 19 14 19 23 22 23 22 20 21 21 21 24 24 26 25 25 20 22 21 20 18 19 18 16 18 20 20
9 6 6 12 16 17 19 21 21 24 21 27 27 24 24 24 23 23 27 22 23 24 23 22 23 23 22 21 19 19 21 17
5 11 13 8 11 15 20 18 20 21 24 22 27 25 27 26 26 26 23 24 23 24 23 24 24 23 23 22 22 19 19 19
8 6 8 12 11 6 14 17 19 21 25 27 33 33 24 24 25 25 26 23 25 27 24 22 22 20 19 18 20 21 20 18
6 8 9 11 13 14 15 10 19 21 23 26 31 32 37 26 27 27 23 24 28 29 30 23 22 19 19 18 19 19 20 19
7 7 9 11 12 14 17 20 20 19 25 26 27 32 31 36 33 30 37 31 20 26 28 25 20 19 19 19 19 19 18 18
10 12 13 13 14 15 17 20 22 23 25 26 29 32 33 33 33 31 35 33 29 28 25 24 21 22 18 16 18 17 16 16
14 15 16 18 16 16 17 18 19 22 26 30 27 31 33 34 34 34 31 30 31 29 28 27 22 19 14 9 11 13 11 15
14 15 17 18 18 21 21 23 26 29 29 26 29 38 34 34 35 34 33 32 33 31 32 24 20 27 13 7 2 5 17 15
14 17 18 19 19 20 20 22 24 25 30 36 37 37 39 34 36 36 36 30 17 30 29 29 22 24 25 8 3 4 3 14
15 18 20 19 22 21 22 22 22 27 33 31 31 33 39 39 42 39 36 36 36 29 28 26 24 21 21 26 11 7 4 2
18 19 21 23 23 22 22 23 24 27 30 35 35 37 41 40 41 39 40 36 35 34 28 27 27 23 21 15 20 18 16 3
19 20 22 23 22 23 24 27 28 28 28 32 35 36 33 40 41 37 37 35 34 38 39 34 38 31 30 25 19 17 12 6
20 21 23 24 23 25 27 27 28 30 30 31 35 38 30 30 36 37 37 34 40 38 37 39 34 34 28 29 31 27 23 20
22 24 25 26 25 28 29 28 26 28 30 31 35 39 30 24 43 36 36 37 36 40 40 34 37 30 27 26 28 24 29 23

GFSFLT2_925_spd_111.txt.gz
Wind_Speed
8 12 12 14 19 20 18 16 15 15 16 17 17 19 20 19 18 19 20 19 17 15 13 13 13 13 12 10 9 9 9 7
12 10 9 12 20 22 21 19 16 17 18 18 18 18 19 19 19 19 20 20 19 17 15 14 14 14 13 12 11 11 10 8
13 12 10 9 19 23 22 20 18 18 18 19 19 20 20 20 21 21 22 22 21 20 17 15 15 15 14 14 13 13 12 9
18 15 13 10 14 19 22 22 22 21 20 20 21 21 21 22 21 22 23 23 23 21 19 17 17 17 17 16 17 15 14 11
19 18 16 12 14 16 18 24 24 23 22 22 22 21 20 20 22 23 24 24 25 24 22 21 20 20 19 17 17 18 16 14
15 14 14 15 16 13 22 21 24 24 25 23 23 23 23 23 22 23 25 28 28 28 26 24 23 23 22 19 18 16 17 17
16 10 4 6 12 21 15 18 21 25 27 28 27 27 28 28 28 27 28 29 30 30 29 27 26 26 24 23 21 18 14 15
17 16 12 7 4 12 18 19 21 22 24 29 32 30 29 29 30 33 30 33 33 31 32 29 28 26 26 24 24 22 17 17
17 15 14 14 10 8 4 14 20 21 24 27 27 34 31 31 32 32 35 33 34 31 29 30 30 27 27 26 24 21 18 17
18 17 15 13 11 11 11 11 11 12 22 25 28 30 32 29 33 34 35 34 36 35 32 31 34 32 27 25 23 21 19 18
21 17 17 14 14 14 15 16 15 17 18 18 26 29 34 37 36 33 29 26 36 40 39 37 33 31 30 26 22 19 20 19
20 19 18 17 15 15 14 14 14 14 16 20 22 28 30 35 38 42 39 35 28 37 40 40 36 34 27 24 22 20 20 20
19 18 19 19 20 21 22 24 25 25 25 23 21 17 29 36 42 43 41 43 36 37 36 34 30 31 22 15 14 18 19 19
18 17 18 19 20 19 17 18 16 23 27 30 32 32 29 29 40 37 36 40 36 35 38 23 19 31 12 10 2 4 16 19
20 18 18 19 21 24 25 24 21 19 22 28 30 28 28 28 33 39 36 39 38 34 25 21 15 18 17 8 2 4 3 14
20 19 19 18 21 22 22 18 20 23 26 29 35 38 38 34 29 39 42 39 39 39 40 24 31 31 15 26 9 7 3 3
20 21 20 22 22 21 21 20 21 24 26 29 33 34 36 32 33 31 42 40 40 43 38 31 39 34 23 35 27 13 10 3
19 22 22 23 25 23 22 23 25 25 27 29 30 30 34 34 31 31 34 42 40 40 40 39 37 33 37 37 32 22 14 5
17 22 24 26 26 25 24 23 24 24 27 28 32 31 31 32 29 36 30 37 37 37 37 40 41 40 39 34 32 30 22 22
21 21 24 24 25 26 26 24 25 25 26 30 33 32 34 36 35 34 35 30 34 36 39 42 43 37 33 32 31 31 30 31

GFSFLT2_925_spd_114.txt.gz
Wind_Speed
15 16 15 17 20 21 20 19 18 18 18 20 21 22 23 21 20 20 20 20 18 17 15 13 11 10 10 10 11 11 11 11
14 16 16 15 19 21 20 20 19 19 19 20 21 22 23 23 22 22 22 22 20 19 17 14 13 12 11 11 11 12 13 12
16 16 17 15 14 21 22 22 20 19 19 20 20 22 23 23 24 23 23 23 23 22 20 17 15 14 13 13 13 13 13 14
17 17 18 17 14 18 25 24 23 22 22 22 23 23 24 25 24 24 24 25 25 24 22 19 18 17 15 15 15 15 15 14
20 17 16 15 14 15 22 24 24 23 23 24 24 24 24 25 25 26 26 26 26 26 25 23 22 20 19 17 16 17 17 16
21 14 14 14 12 13 15 22 24 24 24 24 25 26 26 27 28 28 28 29 30 30 29 28 26 24 22 21 19 18 18 17
12 10 7 9 10 12 14 19 22 25 26 26 27 27 28 29 29 29 30 31 32 33 33 32 30 27 25 24 22 20 17 16
22 18 13 12 5 2 8 12 16 20 24 28 29 30 31 32 32 32 32 32 33 34 35 35 34 30 28 27 26 23 20 18
22 19 14 13 11 9 9 6 9 12 18 25 28 33 33 34 35 37 36 35 34 33 34 34 35 33 32 30 28 25 23 21
22 16 13 11 10 10 10 9 9 8 10 14 18 27 33 36 36 37 36 35 37 36 36 35 34 34 33 30 28 26 26 26
23 18 16 14 13 12 11 12 12 12 11 10 10 12 20 32 34 34 32 39 37 38 36 36 33 34 34 32 29 28 27 25
23 21 20 17 15 17 16 15 15 18 19 18 17 15 16 18 30 36 36 38 37 37 33 36 35 36 32 32 29 29 27 26
27 24 24 23 24 25 27 26 27 22 22 23 23 22 19 18 20 26 34 37 40 42 37 28 29 34 22 21 27 28 27 28
27 25 22 21 21 19 14 23 19 24 22 24 23 23 24 24 21 19 25 32 35 32 35 32 31 31 19 11 4 6 21 25
26 24 21 20 20 21 22 19 20 20 28 28 26 27 27 27 29 27 24 23 32 32 35 37 30 16 16 5 5 3 1 10
26 22 23 21 21 22 23 17 16 19 23 25 30 29 29 28 27 29 28 30 27 32 34 34 31 21 14 12 18 8 3 2
22 22 28 22 21 20 19 20 21 24 22 21 23 24 26 28 28 27 28 31 33 30 31 32 34 29 25 18 24 30 23 4
20 23 32 25 21 20 16 18 22 24 23 24 22 23 24 24 25 27 27 27 32 30 36 35 38 38 31 26 25 24 18 7
21 27 24 25 23 21 18 17 20 21 23 23 28 25 26 30 30 30 30 31 30 27 35 37 35 32 31 32 35 33 22 27
23 20 20 25 24 22 19 20 21 22 23 24 26 25 27 31 31 30 35 36 34 32 32 35 33 36 33 30 34 39 33 29

GFSFLT2_925_spd_117.txt.gz
Wind_Speed
15 16 15 16 20 21 20 20 20 19 20 22 22 23 23 22 21 21 20 19 18 17 16 14 14 13 12 12 12 12 12 10
14 17 16 16 19 22 22 21 21 21 21 22 23 23 24 24 23 22 21 21 20 19 18 16 15 14 14 13 14 14 14 13
15 16 17 16 16 19 22 22 21 21 21 22 22 24 25 26 25 24 23 23 23 21 20 18 16 15 14 14 15 16 16 16
16 16 17 16 15 16 19 22 21 21 21 22 23 24 26 26 26 24 24 24 23 23 21 20 18 18 17 16 17 17 17 18
21 20 18 16 15 14 17 22 22 21 20 22 24 23 24 25 26 27 26 25 24 25 24 24 23 21 20 19 19 19 19 20
21 18 16 15 13 12 14 18 21 21 21 21 21 22 24 26 29 28 28 28 28 28 28 28 26 25 23 22 21 21 21 21
17 13 13 11 9 8 8 15 18 20 21 22 23 24 25 25 26 27 30 30 30 30 30 31 30 28 26 25 24 23 22 23
22 20 16 14 11 8 5 4 3 12 17 21 24 27 28 28 28 27 30 30 31 32 33 33 33 32 30 29 27 26 25 24
26 22 18 15 13 10 6 4 2 2 4 5 13 24 30 31 30 32 33 32 32 31 32 31 31 33 35 34 32 31 29 27
22 20 17 14 10 7 6 5 5 5 4 6 9 14 13 18 33 35 36 36 32 31 32 30 29 28 29 35 36 34 32 31
22 18 15 11 8 5 3 4 6 7 5 6 6 8 12 15 17 24 33 35 33 24 30 31 24 28 28 27 35 36 33 33
20 18 15 11 9 7 6 5 9 9 12 11 12 13 13 14 14 14 16 24 25 32 41 30 21 31 27 25 31 34 33 34
21 21 19 16 13 10 7 17 11 14 13 16 16 16 17 19 19 19 15 15 21 23 29 29 25 34 19 16 19 27 28 32
22 23 22 21 19 16 12 12 9 12 15 17 19 21 21 20 20 21 20 20 17 18 24 22 23 30 20 12 5 10 19 24
21 21 21 23 22 19 15 10 16 18 24 23 23 24 24 22 21 20 21 19 21 21 18 24 20 19 27 11 2 4 4 17
24 24 24 25 23 22 20 16 9 14 23 24 25 24 25 26 24 22 21 20 20 24 24 22 24 17 14 24 20 10 3 2
23 27 29 26 24 22 17 15 13 14 16 22 22 22 24 24 25 23 21 19 19 20 24 26 27 26 23 12 13 16 13 3
25 23 28 26 27 23 21 19 19 19 18 19 20 22 24 24 25 25 26 26 24 22 23 27 28 32 30 30 23 11 9 5
19 21 21 23 26 24 23 20 17 17 17 19 22 22 21 23 26 28 28 27 27 28 28 28 27 32 34 31 34 32 26 25
18 19 19 23 25 22 20 17 17 16 18 20 20 21 23 24 25 26 28 27 28 29 29 27 29 30 33 36 33 32 32 30

GFSFLT2_925_spd_120.txt.gz
Wind_Speed
13 16 17 16 17 19 19 19 19 19 20 21 22 23 23 23 24 23 22 21 20 19 18 17 15 14 14 14 14 13 13 14
16 19 19 18 18 19 19 19 18 18 19 20 21 22 23 23 23 23 22 22 21 19 19 17 16 15 15 15 15 14 14 15
17 19 18 17 17 18 19 19 19 19 19 20 20 22 23 23 23 23 23 23 22 21 20 19 17 16 16 16 16 17 18 17
19 19 20 18 16 16 17 18 19 20 20 20 21 22 24 24 25 24 23 23 23 22 21 20 19 18 18 17 18 19 19 20
22 20 20 18 17 15 14 15 18 19 19 19 20 19 19 22 24 25 24 24 25 24 23 23 22 21 20 20 20 21 21 21
23 21 20 18 16 15 12 12 15 18 19 17 17 18 18 19 20 23 26 27 27 27 28 27 25 25 23 22 22 23 23 24
22 20 20 17 15 12 9 8 10 14 17 17 16 17 19 19 20 20 22 24 29 29 29 30 30 29 27 26 25 25 25 25
20 22 24 21 17 14 11 9 8 11 14 15 13 14 16 16 18 20 23 23 24 30 32 31 28 27 30 30 28 28 27 27
15 18 20 20 18 15 13 11 9 6 6 4 8 13 14 10 16 24 23 23 25 28 31 31 29 25 25 28 31 30 29 29
9 11 12 15 15 14 13 11 9 7 3 3 5 6 8 12 10 8 18 28 29 30 29 27 30 28 27 28 29 33 34 33
13 10 9 8 11 12 11 9 7 5 3 2 1 3 5 8 12 16 18 12 23 31 31 27 25 24 26 24 30 30 33 35
16 15 13 8 5 8 11 9 7 5 4 4 5 6 8 8 9 10 10 12 17 17 25 32 27 21 23 19 29 25 29 32
24 21 21 19 12 5 2 5 8 8 8 7 7 9 10 12 12 12 11 11 13 13 16 23 27 30 18 18 27 21 19 29
28 25 24 21 20 14 6 4 5 6 11 10 12 11 11 12 14 14 12 13 14 14 11 13 20 25 18 15 7 18 28 34
27 28 28 28 21 20 12 4 2 6 16 15 17 14 14 14 14 15 14 13 13 15 15 17 12 14 24 10 2 4 6 21
26 24 31 26 26 21 18 12 9 13 15 17 17 16 16 14 13 13 14 14 14 14 15 17 17 15 15 28 29 4 3 2
23 25 30 25 27 23 20 14 16 15 17 18 17 19 18 17 16 15 16 14 15 15 16 16 18 20 20 13 21 22 16 3
24 25 25 31 30 26 24 21 19 18 18 19 21 19 18 19 19 19 19 16 16 17 18 20 20 21 24 23 23 10 7 6
22 26 25 25 28 25 25 21 18 15 18 19 21 21 21 22 23 23 21 21 20 20 20 22 22 24 26 27 28 30 26 26
23 24 26 25 25 23 21 21 19 18 20 20 18 19 21 23 24 23 21 22 23 21 21 23 23 26 27 34 31 31 29 28

GFSFLT2_925_spd_123.txt.gz
Wind_Speed
11 14 17 19 20 22 22 21 20 18 18 20 21 22 22 22 23 23 23 22 21 21 20 19 18 16 14 14 12 12 10 11
12 14 17 19 19 19 19 19 19 20 19 19 20 21 22 23 23 23 23 22 21 20 20 19 18 16 15 14 13 13 12 12
15 16 17 18 18 18 18 19 18 18 18 19 20 20 20 21 23 24 24 23 22 21 20 19 18 16 15 15 15 13 13 13
19 17 18 18 18 17 17 17 17 18 19 18 19 22 22 20 21 24 24 23 22 21 19 19 18 15 15 17 16 14 14 14
18 20 20 20 19 17 16 15 16 17 17 18 19 19 19 21 21 21 20 22 20 21 20 20 19 17 17 17 16 16 15 14
21 19 21 21 20 19 17 15 15 15 16 16 16 19 20 22 18 18 20 21 19 19 20 22 22 21 19 20 21 18 15 14
16 13 19 21 20 20 16 13 13 13 13 14 15 17 19 19 19 19 20 17 20 21 22 22 25 27 25 21 21 21 20 17
10 7 10 13 18 20 16 15 13 10 10 11 13 15 15 15 16 17 19 22 23 23 24 23 24 27 28 30 24 21 21 23
14 8 3 8 7 11 13 14 13 12 10 11 12 12 15 17 16 17 19 19 21 24 27 27 23 24 28 30 31 31 25 25
18 16 11 7 5 5 6 7 9 9 9 9 8 10 11 10 10 13 17 18 20 23 25 26 28 25 25 26 31 33 34 30
22 22 19 11 8 6 5 5 4 3 3 4 4 4 6 7 9 12 15 14 12 15 24 28 25 26 27 23 25 28 28 28
23 23 22 16 10 6 6 8 7 5 5 4 2 3 4 6 7 9 10 11 13 17 19 20 30 26 21 21 23 24 23 27
26 26 26 22 19 13 8 10 10 11 11 11 8 7 5 5 6 7 9 10 12 13 15 16 20 22 21 25 36 28 30 31
26 24 23 23 17 16 10 11 8 10 14 13 14 13 10 7 6 7 7 7 10 11 11 10 12 19 12 8 3 19 34 35
22 22 21 21 18 15 16 11 15 15 17 16 17 15 14 10 9 8 9 8 8 11 11 12 13 11 27 10 3 6 9 22
20 19 20 20 19 19 19 15 18 20 18 17 16 15 15 13 13 11 11 11 10 10 11 11 11 15 15 29 26 8 4 4
18 17 18 19 19 20 17 21 17 18 17 16 15 13 14 15 14 14 14 14 13 12 12 14 15 14 19 13 18 22 21 5
15 16 17 22 24 24 24 17 15 17 21 19 20 19 17 16 18 15 15 15 16 16 15 15 17 19 20 21 22 13 12 11
19 18 17 18 19 18 19 16 15 13 17 21 21 19 19 18 20 18 18 18 18 17 17 17 17 20 23 21 24 28 25 21
17 18 19 19 17 16 16 14 15 14 17 18 17 17 17 19 19 18 18 18 20 18 18 18 18 21 24 26 26 25 29 27

GFSFLT2_925_spd_126.txt.gz
Wind_Speed
4 4 9 15 16 16 16 16 16 17 19 20 22 23 24 24 23 23 23 22 21 21 20 18 17 16 15 14 13 12 10 9
7 6 6 8 10 15 16 16 16 17 17 19 21 22 23 24 24 24 24 23 22 21 20 20 19 17 16 15 14 13 12 11
8 9 8 9 10 11 15 16 17 17 17 18 18 16 18 20 22 21 24 24 23 21 21 20 19 18 17 16 15 13 13 13
10 11 11 11 12 12 11 13 14 15 16 16 15 16 17 17 19 22 23 24 23 22 22 21 20 17 16 18 16 15 14 14
16 14 12 13 14 13 12 12 12 13 15 15 14 13 14 16 17 17 20 21 20 22 22 21 21 20 19 17 18 17 16 15
20 17 12 13 14 15 14 13 12 12 11 12 14 14 16 15 15 16 18 22 22 24 24 24 24 24 22 20 20 18 17 16
19 18 14 10 14 16 14 13 12 11 10 11 15 18 16 15 18 20 18 19 19 21 23 23 24 23 23 24 22 21 20 18
17 17 17 11 9 8 10 11 7 8 9 9 11 16 17 15 15 16 18 21 22 19 21 22 23 23 25 25 25 24 22 21
20 19 19 16 10 5 1 2 3 3 5 8 10 14 16 13 14 16 16 15 20 24 24 23 22 22 26 27 27 26 24 24
19 19 18 16 15 12 9 7 6 3 4 4 5 5 7 10 12 17 14 18 20 22 22 23 24 26 26 28 29 28 28 27
19 20 21 17 12 12 11 11 10 10 9 9 10 10 9 9 9 12 13 16 20 25 21 24 24 23 27 30 33 33 30 28
18 18 20 18 15 10 9 10 10 11 10 11 11 11 12 11 10 10 11 13 14 16 22 23 21 22 25 32 35 31 28 24
18 19 21 20 18 15 8 11 9 9 11 12 12 12 12 11 11 11 11 12 15 15 15 17 21 21 22 24 26 26 29 22
17 19 19 19 15 13 10 8 5 7 9 11 14 14 13 12 12 12 12 11 14 15 14 17 19 18 10 9 3 7 18 36
17 17 17 17 16 15 12 7 6 8 10 11 14 14 13 15 14 14 14 12 12 15 13 13 18 20 18 14 4 6 9 17
16 16 16 16 16 14 13 11 9 11 11 11 12 14 13 15 16 15 14 13 12 14 13 14 13 17 20 21 29 25 10 10
15 15 16 16 15 15 12 10 12 9 12 11 14 14 14 15 17 16 15 13 13 14 15 14 14 16 18 20 22 26 26 13
12 13 14 16 16 16 15 14 10 10 12 11 15 14 15 13 18 16 15 15 14 16 16 14 16 18 20 18 20 14 15 15
13 13 14 15 16 16 17 17 16 16 18 18 16 17 17 17 17 18 17 17 17 16 16 15 14 17 17 19 20 22 25 27
13 14 14 16 15 16 15 17 16 16 15 15 13 14 15 18 18 17 17 17 16 16 16 14 15 16 17 20 20 21 23 24

GFSFLT2_925_spd_129.txt.gz
Wind_Speed
5 4 5 8 11 13 13 14 14 15 16 17 17 19 20 21 21 22 23 23 22 22 20 19 18 17 15 14 13 12 12 13
8 5 4 5 9 13 16 17 17 17 18 18 19 19 20 21 22 23 23 24 23 23 22 21 19 17 16 16 15 14 14 15
10 9 8 8 10 12 13 16 17 17 18 18 19 18 18 19 22 21 22 25 24 23 22 21 20 19 18 18 16 14 14 15
12 14 14 11 12 11 10 11 11 13 15 14 14 16 17 20 21 23 25 24 25 24 23 22 21 17 18 21 17 17 17 18
16 16 16 12 13 13 13 14 13 13 15 16 18 15 18 19 21 18 20 24 22 23 22 22 21 20 21 21 18 19 19 19
15 17 17 15 12 14 16 17 16 15 12 14 16 15 16 17 19 21 21 20 22 24 24 24 24 24 24 23 20 20 22 20
18 17 18 17 14 14 12 13 12 14 12 12 13 14 16 15 17 18 19 19 20 21 23 23 26 26 27 27 26 22 23 21
20 20 19 16 16 14 12 9 4 2 5 6 7 8 10 13 15 16 18 19 21 20 22 23 25 24 28 30 29 27 23 25
17 18 19 17 14 17 14 12 11 7 5 4 4 6 9 9 8 9 12 15 19 20 23 22 22 24 27 28 30 29 28 28
17 17 18 16 14 11 14 13 14 14 13 9 8 8 10 11 11 14 17 20 15 15 17 25 27 28 30 30 28 29 30 29
18 17 18 16 14 11 11 14 12 13 15 14 14 13 13 12 11 11 13 16 17 18 21 23 20 27 32 22 25 28 32 33
16 18 19 16 13 9 8 9 11 13 14 15 14 13 14 12 10 10 13 13 13 15 16 16 20 26 28 23 24 29 32 36
16 18 19 18 16 14 11 11 11 11 10 11 12 13 14 13 11 12 13 12 14 16 18 20 20 19 20 19 25 31 38 34
15 17 18 18 16 15 11 10 8 9 11 10 12 13 12 11 13 12 13 13 13 13 15 18 19 18 16 15 6 8 19 27
13 14 15 16 17 14 14 10 6 11 11 13 13 13 13 12 13 13 13 12 12 14 14 14 17 19 20 14 4 6 9 18
11 12 14 15 16 15 15 13 13 13 12 14 13 12 13 14 13 13 14 13 12 12 13 15 14 16 18 16 22 21 8 10
12 11 12 13 14 15 14 14 13 13 12 14 13 12 11 12 15 13 13 14 15 14 15 16 14 15 15 17 18 21 22 10
12 14 13 15 15 13 13 13 12 12 14 12 14 14 14 15 15 14 13 15 16 16 15 15 16 18 18 17 15 10 13 16
11 11 12 13 13 13 13 13 12 11 12 13 13 13 14 16 16 15 15 15 16 16 15 16 16 18 19 19 18 17 17 19
10 11 11 12 12 12 12 13 12 11 11 12 12 13 15 17 17 16 16 14 16 16 15 14 16 18 19 19 19 17 19 20